Wetterdaten: Donnerstag, 01.07.2010
Datum Zeit Temp. Innen Temp. Aussen UV X Diff Temp. Feuchte Inne Feuchte Auss Sonnenschein Luftdruck Regen ab 0,1 Wind Sonnenschein Windben
01.07.2010 00:00 26,0 C 20,8 C 0,1 UV-I 0,0 C 53 % 73 % 0 % 1021,6 hPa 0,0 l/m 0,0 km/h (0 Bft) 0 min 0,0 km/h (0 Bft)
01.07.2010 00:02 25,9 C 20,9 C 0,0 UV-I 0,0 C 53 % 73 % 0 % 1021,6 hPa 0,0 l/m 0,0 km/h (0 Bft) 0 min 0,0 km/h (0 Bft)
01.07.2010 00:04 25,9 C 20,9 C 0,0 UV-I 0,0 C 53 % 73 % 0 % 1021,6 hPa 0,0 l/m 0,0 km/h (0 Bft) 0 min 0,0 km/h (0 Bft)
01.07.2010 00:06 25,9 C 20,7 C 0,0 UV-I 0,0 C 53 % 73 % 0 % 1021,6 hPa 0,0 l/m 0,0 km/h (0 Bft) 0 min 0,0 km/h (0 Bft)
01.07.2010 00:08 25,9 C 20,7 C 0,0 UV-I 0,0 C 54 % 74 % 0 % 1021,6 hPa 0,0 l/m 0,0 km/h (0 Bft) 0 min 0,0 km/h (0 Bft)
01.07.2010 00:10 25,9 C 20,7 C 0,0 UV-I 0,0 C 54 % 74 % 0 % 1021,3 hPa 0,0 l/m 0,0 km/h (0 Bft) 0 min 0,0 km/h (0 Bft)
01.07.2010 00:14 25,8 C 20,5 C 0,0 UV-I 0,0 C 54 % 74 % 0 % 1021,3 hPa 0,0 l/m 0,0 km/h (0 Bft) 0 min 0,0 km/h (0 Bft)
01.07.2010 00:16 25,8 C 20,4 C 0,0 UV-I 0,0 C 54 % 74 % 0 % 1021,3 hPa 0,0 l/m 0,0 km/h (0 Bft) 0 min 0,0 km/h (0 Bft)
01.07.2010 00:18 25,8 C 20,5 C 0,0 UV-I 0,0 C 54 % 74 % 0 % 1021,3 hPa 0,0 l/m 0,0 km/h (0 Bft) 0 min 0,0 km/h (0 Bft)
01.07.2010 00:20 25,8 C 20,3 C 0,0 UV-I 0,0 C 54 % 76 % 0 % 1021,3 hPa 0,0 l/m 0,0 km/h (0 Bft) 0 min 0,0 km/h (0 Bft)
01.07.2010 00:22 25,8 C 20,3 C 0,0 UV-I 0,0 C 54 % 76 % 0 % 1021,3 hPa 0,0 l/m 0,0 km/h (0 Bft) 0 min 0,0 km/h (0 Bft)
01.07.2010 00:24 25,8 C 20,3 C 0,0 UV-I 0,0 C 54 % 76 % 0 % 1021,3 hPa 0,0 l/m 0,0 km/h (0 Bft) 0 min 0,0 km/h (0 Bft)
01.07.2010 00:28 25,8 C 20,2 C 0,0 UV-I 0,0 C 54 % 76 % 0 % 1021,3 hPa 0,0 l/m 0,0 km/h (0 Bft) 0 min 0,0 km/h (0 Bft)
01.07.2010 00:30 25,8 C 20,2 C 0,0 UV-I 0,0 C 54 % 76 % 0 % 1021,2 hPa 0,0 l/m 0,0 km/h (0 Bft) 0 min 0,0 km/h (0 Bft)
01.07.2010 00:32 25,7 C 20,1 C 0,0 UV-I 0,0 C 54 % 76 % 0 % 1021,2 hPa 0,0 l/m 0,0 km/h (0 Bft) 0 min 0,0 km/h (0 Bft)
01.07.2010 00:34 25,7 C 20,0 C 0,0 UV-I 0,0 C 54 % 76 % 0 % 1021,2 hPa 0,0 l/m 0,0 km/h (0 Bft) 0 min 0,0 km/h (0 Bft)
01.07.2010 00:38 25,7 C 20,0 C 0,0 UV-I 0,0 C 54 % 76 % 0 % 1021,2 hPa 0,0 l/m 0,0 km/h (0 Bft) 0 min 0,0 km/h (0 Bft)
01.07.2010 00:40 25,7 C 20,0 C 0,0 UV-I 0,0 C 54 % 76 % 0 % 1021,2 hPa 0,0 l/m 0,0 km/h (0 Bft) 0 min 0,0 km/h (0 Bft)
01.07.2010 00:42 25,7 C 19,9 C 0,0 UV-I 0,0 C 54 % 76 % 0 % 1021,2 hPa 0,0 l/m 0,0 km/h (0 Bft) 0 min 0,0 km/h (0 Bft)
01.07.2010 00:44 25,6 C 19,8 C 0,0 UV-I 0,0 C 54 % 77 % 0 % 1021,2 hPa 0,0 l/m 0,0 km/h (0 Bft) 0 min 0,0 km/h (0 Bft)
01.07.2010 00:48 25,6 C 19,9 C 0,1 UV-I 0,0 C 54 % 77 % 0 % 1021,2 hPa 0,0 l/m 0,0 km/h (0 Bft) 0 min 0,0 km/h (0 Bft)
01.07.2010 00:50 25,6 C 19,9 C 0,1 UV-I 0,0 C 54 % 77 % 0 % 1021,5 hPa 0,0 l/m 0,0 km/h (0 Bft) 0 min 0,0 km/h (0 Bft)
01.07.2010 00:52 25,6 C 19,7 C 0,1 UV-I 0,0 C 55 % 77 % 0 % 1021,5 hPa 0,0 l/m 0,0 km/h (0 Bft) 0 min 0,0 km/h (0 Bft)
01.07.2010 00:54 25,6 C 19,7 C 0,1 UV-I 0,0 C 55 % 77 % 0 % 1021,5 hPa 0,0 l/m 0,0 km/h (0 Bft) 0 min 0,0 km/h (0 Bft)
01.07.2010 00:56 25,6 C 19,7 C 0,1 UV-I 0,0 C 55 % 77 % 0 % 1021,5 hPa 0,0 l/m 0,0 km/h (0 Bft) 0 min 0,0 km/h (0 Bft)
01.07.2010 00:58 25,6 C 19,6 C 0,1 UV-I 0,0 C 55 % 78 % 0 % 1021,5 hPa 0,0 l/m 0,0 km/h (0 Bft) 0 min 0,0 km/h (0 Bft)
01.07.2010 01:00 25,6 C 19,6 C 0,1 UV-I 0,0 C 55 % 78 % 0 % 1021,5 hPa 0,0 l/m 0,0 km/h (0 Bft) 0 min 0,0 km/h (0 Bft)
01.07.2010 01:02 25,6 C 19,7 C 0,1 UV-I 0,0 C 55 % 78 % 0 % 1021,5 hPa 0,0 l/m 0,0 km/h (0 Bft) 0 min 0,0 km/h (0 Bft)
01.07.2010 01:04 25,6 C 19,6 C 0,1 UV-I 0,0 C 55 % 78 % 0 % 1021,5 hPa 0,0 l/m 0,0 km/h (0 Bft) 0 min 0,0 km/h (0 Bft)
01.07.2010 01:06 25,6 C 19,6 C 0,1 UV-I 0,0 C 55 % 78 % 0 % 1021,5 hPa 0,0 l/m 0,0 km/h (0 Bft) 0 min 0,0 km/h (0 Bft)
01.07.2010 01:08 25,6 C 19,6 C 0,0 UV-I 0,0 C 55 % 79 % 0 % 1021,5 hPa 0,0 l/m 0,0 km/h (0 Bft) 0 min 0,0 km/h (0 Bft)
01.07.2010 01:10 25,6 C 19,6 C 0,0 UV-I 0,0 C 55 % 79 % 0 % 1021,0 hPa 0,0 l/m 0,0 km/h (0 Bft) 0 min 0,0 km/h (0 Bft)
01.07.2010 01:12 25,6 C 19,5 C 0,0 UV-I 0,0 C 55 % 78 % 0 % 1021,0 hPa 0,0 l/m 0,0 km/h (0 Bft) 0 min 0,0 km/h (0 Bft)
01.07.2010 01:14 25,5 C 19,5 C 0,0 UV-I 0,0 C 55 % 79 % 0 % 1021,0 hPa 0,0 l/m 0,0 km/h (0 Bft) 0 min 0,0 km/h (0 Bft)
01.07.2010 01:16 25,5 C 19,5 C 0,0 UV-I 0,0 C 55 % 79 % 0 % 1021,0 hPa 0,0 l/m 0,0 km/h (0 Bft) 0 min 0,0 km/h (0 Bft)
01.07.2010 01:18 25,5 C 19,4 C 0,0 UV-I 0,0 C 55 % 79 % 0 % 1021,0 hPa 0,0 l/m 0,0 km/h (0 Bft) 0 min 0,0 km/h (0 Bft)
01.07.2010 01:20 25,5 C 19,5 C 0,0 UV-I 0,0 C 55 % 79 % 0 % 1021,0 hPa 0,0 l/m 0,0 km/h (0 Bft) 0 min 0,0 km/h (0 Bft)
01.07.2010 01:22 25,5 C 19,5 C 0,0 UV-I 0,0 C 55 % 80 % 0 % 1021,0 hPa 0,0 l/m 0,0 km/h (0 Bft) 0 min 0,0 km/h (0 Bft)
01.07.2010 01:24 25,5 C 19,4 C 0,0 UV-I 0,0 C 55 % 80 % 0 % 1021,0 hPa 0,0 l/m 0,0 km/h (0 Bft) 0 min 0,0 km/h (0 Bft)
01.07.2010 01:26 25,5 C 19,3 C 0,0 UV-I 0,0 C 55 % 80 % 0 % 1021,0 hPa 0,0 l/m 0,0 km/h (0 Bft) 0 min 0,0 km/h (0 Bft)
01.07.2010 01:30 25,5 C 19,3 C 0,0 UV-I 0,0 C 55 % 80 % 0 % 1021,1 hPa 0,0 l/m 0,0 km/h (0 Bft) 0 min 0,0 km/h (0 Bft)
01.07.2010 01:32 25,5 C 19,3 C 0,0 UV-I 0,0 C 55 % 80 % 0 % 1021,1 hPa 0,0 l/m 0,0 km/h (0 Bft) 0 min 0,0 km/h (0 Bft)
01.07.2010 01:34 25,5 C 19,2 C 0,0 UV-I 0,0 C 55 % 80 % 0 % 1021,1 hPa 0,0 l/m 0,0 km/h (0 Bft) 0 min 0,0 km/h (0 Bft)
01.07.2010 01:36 25,5 C 19,2 C 0,0 UV-I 0,0 C 55 % 80 % 0 % 1021,1 hPa 0,0 l/m 0,0 km/h (0 Bft) 0 min 0,0 km/h (0 Bft)
01.07.2010 01:38 25,5 C 19,2 C 0,0 UV-I 0,0 C 56 % 80 % 0 % 1021,1 hPa 0,0 l/m 0,0 km/h (0 Bft) 0 min 0,0 km/h (0 Bft)
01.07.2010 01:40 25,4 C 19,3 C 0,0 UV-I 0,0 C 56 % 81 % 0 % 1021,1 hPa 0,0 l/m 0,0 km/h (0 Bft) 0 min 0,0 km/h (0 Bft)
01.07.2010 01:42 25,4 C 19,3 C 0,0 UV-I 0,0 C 56 % 81 % 0 % 1021,1 hPa 0,0 l/m 0,0 km/h (0 Bft) 0 min 0,0 km/h (0 Bft)
01.07.2010 01:44 25,4 C 19,2 C 0,0 UV-I 0,0 C 56 % 81 % 0 % 1021,1 hPa 0,0 l/m 0,0 km/h (0 Bft) 0 min 0,0 km/h (0 Bft)
01.07.2010 01:46 25,4 C 19,2 C 0,0 UV-I 0,0 C 56 % 81 % 0 % 1021,1 hPa 0,0 l/m 0,0 km/h (0 Bft) 0 min 0,0 km/h (0 Bft)
01.07.2010 01:48 25,4 C 19,2 C 0,0 UV-I 0,0 C 56 % 81 % 0 % 1021,1 hPa 0,0 l/m 0,0 km/h (0 Bft) 0 min 0,0 km/h (0 Bft)
01.07.2010 01:50 25,4 C 19,2 C 0,0 UV-I 0,0 C 56 % 81 % 0 % 1021,1 hPa 0,0 l/m 0,0 km/h (0 Bft) 0 min 0,0 km/h (0 Bft)
01.07.2010 01:52 25,4 C 19,1 C 0,0 UV-I 0,0 C 56 % 81 % 0 % 1021,1 hPa 0,0 l/m 0,0 km/h (0 Bft) 0 min 0,0 km/h (0 Bft)
01.07.2010 01:56 25,4 C 19,0 C 0,0 UV-I 0,0 C 56 % 81 % 0 % 1021,1 hPa 0,0 l/m 0,0 km/h (0 Bft) 0 min 0,0 km/h (0 Bft)
01.07.2010 01:58 25,4 C 19,1 C 0,0 UV-I 0,0 C 56 % 81 % 0 % 1021,1 hPa 0,0 l/m 0,0 km/h (0 Bft) 0 min 0,0 km/h (0 Bft)
01.07.2010 02:00 25,4 C 19,1 C 0,0 UV-I 0,0 C 56 % 81 % 0 % 1021,1 hPa 0,0 l/m 0,0 km/h (0 Bft) 0 min 0,0 km/h (0 Bft)
01.07.2010 02:02 25,4 C 18,9 C 0,1 UV-I 0,0 C 56 % 82 % 0 % 1021,1 hPa 0,0 l/m 0,0 km/h (0 Bft) 0 min 0,0 km/h (0 Bft)
01.07.2010 02:04 25,4 C 18,9 C 0,1 UV-I 0,0 C 56 % 82 % 0 % 1021,1 hPa 0,0 l/m 0,0 km/h (0 Bft) 0 min 0,0 km/h (0 Bft)
01.07.2010 02:06 25,4 C 18,9 C 0,1 UV-I 0,0 C 56 % 82 % 0 % 1021,1 hPa 0,0 l/m 0,0 km/h (0 Bft) 0 min 0,0 km/h (0 Bft)
01.07.2010 02:08 25,4 C 18,9 C 0,0 UV-I 0,0 C 56 % 82 % 0 % 1021,1 hPa 0,0 l/m 0,0 km/h (0 Bft) 0 min 0,0 km/h (0 Bft)
01.07.2010 02:10 25,4 C 18,9 C 0,0 UV-I 0,0 C 56 % 82 % 0 % 1020,6 hPa 0,0 l/m 0,0 km/h (0 Bft) 0 min 0,0 km/h (0 Bft)
01.07.2010 02:12 25,2 C 18,8 C 0,0 UV-I 0,0 C 56 % 83 % 0 % 1020,6 hPa 0,0 l/m 0,0 km/h (0 Bft) 0 min 0,0 km/h (0 Bft)
01.07.2010 02:14 25,2 C 18,8 C 0,0 UV-I 0,0 C 56 % 83 % 0 % 1020,6 hPa 0,0 l/m 0,0 km/h (0 Bft) 0 min 0,0 km/h (0 Bft)
01.07.2010 02:16 25,2 C 18,8 C 0,0 UV-I 0,0 C 56 % 83 % 0 % 1020,6 hPa 0,0 l/m 0,0 km/h (0 Bft) 0 min 0,0 km/h (0 Bft)
01.07.2010 02:20 25,3 C 18,8 C 0,0 UV-I 0,0 C 57 % 84 % 0 % 1020,6 hPa 0,0 l/m 0,0 km/h (0 Bft) 0 min 0,0 km/h (0 Bft)
01.07.2010 02:22 25,2 C 18,8 C 0,0 UV-I 0,0 C 56 % 84 % 0 % 1020,6 hPa 0,0 l/m 0,0 km/h (0 Bft) 0 min 0,0 km/h (0 Bft)
01.07.2010 02:24 25,3 C 18,7 C 0,0 UV-I 0,0 C 56 % 84 % 0 % 1020,6 hPa 0,0 l/m 0,0 km/h (0 Bft) 0 min 0,0 km/h (0 Bft)
01.07.2010 02:26 25,3 C 18,7 C 0,0 UV-I 0,0 C 57 % 84 % 0 % 1020,6 hPa 0,0 l/m 0,0 km/h (0 Bft) 0 min 0,0 km/h (0 Bft)
01.07.2010 02:28 25,3 C 18,7 C 0,0 UV-I 0,0 C 57 % 84 % 0 % 1020,6 hPa 0,0 l/m 0,0 km/h (0 Bft) 0 min 0,0 km/h (0 Bft)
01.07.2010 02:30 25,3 C 18,7 C 0,0 UV-I 0,0 C 57 % 84 % 0 % 1020,7 hPa 0,0 l/m 0,0 km/h (0 Bft) 0 min 0,0 km/h (0 Bft)
01.07.2010 02:32 25,2 C 18,6 C 0,0 UV-I 0,0 C 57 % 84 % 0 % 1020,7 hPa 0,0 l/m 0,0 km/h (0 Bft) 0 min 0,0 km/h (0 Bft)
01.07.2010 02:34 25,3 C 18,6 C 0,0 UV-I 0,0 C 57 % 85 % 0 % 1020,7 hPa 0,0 l/m 0,0 km/h (0 Bft) 0 min 0,0 km/h (0 Bft)
01.07.2010 02:36 25,2 C 18,7 C 0,0 UV-I 0,0 C 57 % 85 % 0 % 1020,7 hPa 0,0 l/m 0,0 km/h (0 Bft) 0 min 0,0 km/h (0 Bft)
01.07.2010 02:38 25,2 C 18,7 C 0,0 UV-I 0,0 C 57 % 85 % 0 % 1020,7 hPa 0,0 l/m 0,0 km/h (0 Bft) 0 min 0,0 km/h (0 Bft)
01.07.2010 02:40 25,2 C 18,7 C 0,0 UV-I 0,0 C 57 % 85 % 0 % 1020,7 hPa 0,0 l/m 0,0 km/h (0 Bft) 0 min 0,0 km/h (0 Bft)
01.07.2010 02:42 25,2 C 18,6 C 0,0 UV-I 0,0 C 57 % 85 % 0 % 1020,7 hPa 0,0 l/m 0,0 km/h (0 Bft) 0 min 0,0 km/h (0 Bft)
01.07.2010 02:46 25,2 C 18,5 C 0,0 UV-I 0,0 C 57 % 85 % 0 % 1020,7 hPa 0,0 l/m 0,0 km/h (0 Bft) 0 min 0,0 km/h (0 Bft)
01.07.2010 02:48 25,2 C 18,5 C 0,0 UV-I 0,0 C 57 % 85 % 0 % 1020,7 hPa 0,0 l/m 0,0 km/h (0 Bft) 0 min 0,0 km/h (0 Bft)
01.07.2010 02:50 25,2 C 18,5 C 0,0 UV-I 0,0 C 57 % 85 % 0 % 1020,6 hPa 0,0 l/m 0,0 km/h (0 Bft) 0 min 0,0 km/h (0 Bft)
01.07.2010 02:52 25,2 C 18,5 C 0,0 UV-I 0,0 C 57 % 85 % 0 % 1020,6 hPa 0,0 l/m 0,0 km/h (0 Bft) 0 min 0,0 km/h (0 Bft)
01.07.2010 02:54 25,2 C 18,5 C 0,0 UV-I 0,0 C 57 % 85 % 0 % 1020,6 hPa 0,0 l/m 0,0 km/h (0 Bft) 0 min 0,0 km/h (0 Bft)
01.07.2010 02:56 25,2 C 18,4 C 0,0 UV-I 0,0 C 57 % 85 % 0 % 1020,6 hPa 0,0 l/m 0,0 km/h (0 Bft) 0 min 0,0 km/h (0 Bft)
01.07.2010 02:58 25,2 C 18,4 C 0,0 UV-I 0,0 C 57 % 85 % 0 % 1020,6 hPa 0,0 l/m 0,0 km/h (0 Bft) 0 min 0,0 km/h (0 Bft)
01.07.2010 03:00 25,2 C 18,4 C 0,0 UV-I 0,0 C 57 % 85 % 0 % 1020,6 hPa 0,0 l/m 0,0 km/h (0 Bft) 0 min 0,0 km/h (0 Bft)
01.07.2010 03:02 25,2 C 18,4 C 0,0 UV-I 0,0 C 57 % 85 % 0 % 1020,6 hPa 0,0 l/m 0,0 km/h (0 Bft) 0 min 0,0 km/h (0 Bft)
01.07.2010 03:04 25,2 C 18,4 C 0,0 UV-I 0,0 C 57 % 85 % 0 % 1020,6 hPa 0,0 l/m 0,0 km/h (0 Bft) 0 min 0,0 km/h (0 Bft)
01.07.2010 03:10 25,2 C 18,4 C 0,0 UV-I 0,0 C 57 % 85 % 0 % 1020,2 hPa 0,0 l/m 0,0 km/h (0 Bft) 0 min 0,0 km/h (0 Bft)
01.07.2010 03:12 25,2 C 18,4 C 0,0 UV-I 0,0 C 57 % 86 % 0 % 1020,2 hPa 0,0 l/m 0,0 km/h (0 Bft) 0 min 0,0 km/h (0 Bft)
01.07.2010 03:14 25,1 C 18,4 C 0,0 UV-I 0,0 C 57 % 86 % 0 % 1020,2 hPa 0,0 l/m 0,0 km/h (0 Bft) 0 min 0,0 km/h (0 Bft)
01.07.2010 03:16 25,1 C 18,4 C 0,0 UV-I 0,0 C 58 % 86 % 0 % 1020,2 hPa 0,0 l/m 0,0 km/h (0 Bft) 0 min 0,0 km/h (0 Bft)
01.07.2010 03:20 25,1 C 18,3 C 0,0 UV-I 0,0 C 58 % 85 % 0 % 1020,2 hPa 0,0 l/m 0,0 km/h (0 Bft) 0 min 0,0 km/h (0 Bft)
01.07.2010 03:22 25,1 C 18,3 C 0,0 UV-I 0,0 C 58 % 85 % 0 % 1020,2 hPa 0,0 l/m 0,0 km/h (0 Bft) 0 min 0,0 km/h (0 Bft)
01.07.2010 03:24 25,1 C 18,3 C 0,0 UV-I 0,0 C 58 % 85 % 0 % 1020,2 hPa 0,0 l/m 0,0 km/h (0 Bft) 0 min 0,0 km/h (0 Bft)
01.07.2010 03:28 25,1 C 18,3 C 0,1 UV-I 0,0 C 58 % 85 % 0 % 1020,2 hPa 0,0 l/m 0,0 km/h (0 Bft) 0 min 0,0 km/h (0 Bft)
01.07.2010 03:30 25,1 C 18,3 C 0,1 UV-I 0,0 C 58 % 85 % 0 % 1020,2 hPa 0,0 l/m 0,0 km/h (0 Bft) 0 min 0,0 km/h (0 Bft)
01.07.2010 03:32 25,1 C 18,3 C 0,0 UV-I 0,0 C 58 % 85 % 0 % 1020,2 hPa 0,0 l/m 0,0 km/h (0 Bft) 0 min 0,0 km/h (0 Bft)
01.07.2010 03:34 25,1 C 18,3 C 0,0 UV-I 0,0 C 58 % 85 % 0 % 1020,2 hPa 0,0 l/m 0,0 km/h (0 Bft) 0 min 0,0 km/h (0 Bft)
01.07.2010 03:36 25,1 C 18,2 C 0,0 UV-I 0,0 C 58 % 86 % 0 % 1020,2 hPa 0,0 l/m 0,0 km/h (0 Bft) 0 min 0,0 km/h (0 Bft)
01.07.2010 03:38 25,0 C 18,2 C 0,0 UV-I 0,0 C 58 % 86 % 0 % 1020,2 hPa 0,0 l/m 0,0 km/h (0 Bft) 0 min 0,0 km/h (0 Bft)
01.07.2010 03:44 25,0 C 18,3 C 0,0 UV-I 0,0 C 58 % 86 % 0 % 1020,2 hPa 0,0 l/m 0,0 km/h (0 Bft) 0 min 3,2 km/h (1 Bft)
01.07.2010 03:46 25,0 C 18,3 C 0,0 UV-I 0,0 C 58 % 86 % 0 % 1020,2 hPa 0,0 l/m 0,4 km/h (0 Bft) 0 min 0,0 km/h (0 Bft)
01.07.2010 03:48 25,0 C 18,3 C 0,0 UV-I 0,0 C 58 % 86 % 0 % 1020,2 hPa 0,0 l/m 0,4 km/h (0 Bft) 0 min 0,0 km/h (0 Bft)
01.07.2010 03:50 25,0 C 18,3 C 0,0 UV-I 0,0 C 58 % 86 % 0 % 1020,1 hPa 0,0 l/m 0,4 km/h (0 Bft) 0 min 0,0 km/h (0 Bft)
01.07.2010 03:52 25,0 C 18,2 C 0,0 UV-I 0,0 C 58 % 86 % 0 % 1020,1 hPa 0,0 l/m 0,4 km/h (0 Bft) 0 min 0,0 km/h (0 Bft)
01.07.2010 03:58 25,0 C 18,2 C 0,1 UV-I 0,0 C 58 % 86 % 0 % 1020,1 hPa 0,0 l/m 0,0 km/h (0 Bft) 0 min 0,0 km/h (0 Bft)
01.07.2010 04:00 25,0 C 18,2 C 0,1 UV-I 0,0 C 58 % 86 % 0 % 1020,1 hPa 0,0 l/m 0,0 km/h (0 Bft) 0 min 0,0 km/h (0 Bft)
01.07.2010 04:02 25,0 C 18,2 C 0,1 UV-I 0,0 C 58 % 86 % 0 % 1020,1 hPa 0,0 l/m 0,0 km/h (0 Bft) 0 min 0,0 km/h (0 Bft)
01.07.2010 04:04 24,9 C 18,1 C 0,1 UV-I 0,0 C 58 % 86 % 0 % 1020,1 hPa 0,0 l/m 0,0 km/h (0 Bft) 0 min 0,0 km/h (0 Bft)
01.07.2010 04:06 25,0 C 18,1 C 0,1 UV-I 0,0 C 58 % 86 % 0 % 1020,1 hPa 0,0 l/m 0,0 km/h (0 Bft) 0 min 0,0 km/h (0 Bft)
01.07.2010 04:08 25,0 C 18,1 C 0,1 UV-I 0,0 C 58 % 86 % 0 % 1020,1 hPa 0,0 l/m 0,0 km/h (0 Bft) 0 min 0,0 km/h (0 Bft)
01.07.2010 04:10 25,0 C 18,1 C 0,1 UV-I 0,0 C 58 % 86 % 0 % 1019,8 hPa 0,0 l/m 0,0 km/h (0 Bft) 0 min 0,0 km/h (0 Bft)
01.07.2010 04:13 25,0 C 18,1 C 0,0 UV-I 0,0 C 58 % 86 % 0 % 1019,8 hPa 0,0 l/m 0,0 km/h (0 Bft) 0 min 0,0 km/h (0 Bft)
01.07.2010 04:18 24,9 C 18,0 C 0,0 UV-I 0,0 C 58 % 86 % 0 % 1019,8 hPa 0,0 l/m 0,0 km/h (0 Bft) 0 min 0,0 km/h (0 Bft)
01.07.2010 04:19 24,9 C 18,0 C 0,0 UV-I 0,0 C 58 % 86 % 0 % 1019,8 hPa 0,0 l/m 0,0 km/h (0 Bft) 0 min 0,0 km/h (0 Bft)
01.07.2010 04:22 24,9 C 18,0 C 0,0 UV-I 0,0 C 58 % 86 % 0 % 1019,8 hPa 0,0 l/m 0,0 km/h (0 Bft) 0 min 0,0 km/h (0 Bft)
01.07.2010 04:24 24,9 C 18,1 C 0,0 UV-I 0,0 C 58 % 86 % 0 % 1019,8 hPa 0,0 l/m 0,0 km/h (0 Bft) 0 min 0,0 km/h (0 Bft)
01.07.2010 04:26 24,9 C 18,0 C 0,0 UV-I 0,0 C 58 % 86 % 0 % 1019,8 hPa 0,0 l/m 0,0 km/h (0 Bft) 0 min 0,0 km/h (0 Bft)
01.07.2010 04:28 24,9 C 18,0 C 0,0 UV-I 0,0 C 58 % 86 % 0 % 1019,8 hPa 0,0 l/m 0,0 km/h (0 Bft) 0 min 0,0 km/h (0 Bft)
01.07.2010 04:30 24,9 C 18,0 C 0,0 UV-I 0,0 C 58 % 86 % 0 % 1019,9 hPa 0,0 l/m 0,0 km/h (0 Bft) 0 min 0,0 km/h (0 Bft)
01.07.2010 04:32 24,9 C 17,9 C 0,0 UV-I 0,0 C 58 % 86 % 0 % 1019,9 hPa 0,0 l/m 0,0 km/h (0 Bft) 0 min 0,0 km/h (0 Bft)
01.07.2010 04:34 24,9 C 17,9 C 0,0 UV-I 0,0 C 58 % 87 % 0 % 1019,9 hPa 0,0 l/m 0,0 km/h (0 Bft) 0 min 0,0 km/h (0 Bft)
01.07.2010 04:36 24,9 C 17,9 C 0,0 UV-I 0,0 C 58 % 87 % 0 % 1019,9 hPa 0,0 l/m 0,0 km/h (0 Bft) 0 min 0,0 km/h (0 Bft)
01.07.2010 04:38 24,9 C 17,9 C 0,0 UV-I 0,0 C 58 % 87 % 0 % 1019,9 hPa 0,0 l/m 0,0 km/h (0 Bft) 0 min 0,0 km/h (0 Bft)
01.07.2010 04:40 24,9 C 17,8 C 0,0 UV-I 0,0 C 58 % 87 % 0 % 1019,9 hPa 0,0 l/m 0,4 km/h (0 Bft) 0 min 0,0 km/h (0 Bft)
01.07.2010 04:42 24,9 C 17,8 C 0,0 UV-I 0,0 C 58 % 87 % 0 % 1019,9 hPa 0,0 l/m 0,4 km/h (0 Bft) 0 min 0,0 km/h (0 Bft)
01.07.2010 04:44 24,8 C 17,8 C 0,0 UV-I 0,0 C 58 % 87 % 0 % 1019,9 hPa 0,0 l/m 0,4 km/h (0 Bft) 0 min 0,0 km/h (0 Bft)
01.07.2010 04:46 24,8 C 17,8 C 0,0 UV-I 0,0 C 58 % 87 % 0 % 1019,9 hPa 0,0 l/m 0,4 km/h (0 Bft) 0 min 0,0 km/h (0 Bft)
01.07.2010 04:48 24,8 C 17,8 C 0,0 UV-I 0,0 C 58 % 87 % 0 % 1019,9 hPa 0,0 l/m 0,4 km/h (0 Bft) 0 min 0,0 km/h (0 Bft)
01.07.2010 04:50 24,8 C 17,8 C 0,0 UV-I 0,0 C 58 % 87 % 0 % 1019,8 hPa 0,0 l/m 0,4 km/h (0 Bft) 0 min 0,0 km/h (0 Bft)
01.07.2010 04:52 24,8 C 17,9 C 0,0 UV-I 0,0 C 58 % 87 % 0 % 1019,8 hPa 0,0 l/m 0,0 km/h (0 Bft) 0 min 0,0 km/h (0 Bft)
01.07.2010 04:54 24,8 C 17,9 C 0,0 UV-I 0,0 C 58 % 87 % 0 % 1019,8 hPa 0,0 l/m 0,0 km/h (0 Bft) 0 min 0,0 km/h (0 Bft)
01.07.2010 04:56 24,8 C 17,9 C 0,0 UV-I 0,0 C 58 % 87 % 0 % 1019,8 hPa 0,0 l/m 0,0 km/h (0 Bft) 0 min 0,0 km/h (0 Bft)
01.07.2010 04:58 24,8 C 17,9 C 0,0 UV-I 0,0 C 58 % 87 % 0 % 1019,8 hPa 0,0 l/m 0,0 km/h (0 Bft) 0 min 0,0 km/h (0 Bft)
01.07.2010 05:00 24,8 C 17,8 C 0,0 UV-I 0,0 C 58 % 87 % 0 % 1019,8 hPa 0,0 l/m 0,0 km/h (0 Bft) 0 min 0,0 km/h (0 Bft)
01.07.2010 05:02 24,8 C 17,8 C 0,0 UV-I 0,0 C 58 % 87 % 0 % 1019,8 hPa 0,0 l/m 0,0 km/h (0 Bft) 0 min 0,0 km/h (0 Bft)
01.07.2010 05:04 24,8 C 17,9 C 0,0 UV-I 0,0 C 58 % 87 % 0 % 1019,8 hPa 0,0 l/m 0,0 km/h (0 Bft) 0 min 0,0 km/h (0 Bft)
01.07.2010 05:06 24,8 C 17,9 C 0,0 UV-I 0,0 C 58 % 87 % 0 % 1019,8 hPa 0,0 l/m 0,0 km/h (0 Bft) 0 min 4,2 km/h (1 Bft)
01.07.2010 05:08 24,8 C 17,8 C 0,0 UV-I 0,0 C 58 % 87 % 0 % 1019,8 hPa 0,0 l/m 0,0 km/h (0 Bft) 0 min 0,0 km/h (0 Bft)
01.07.2010 05:10 24,8 C 17,8 C 0,0 UV-I 0,0 C 58 % 87 % 0 % 1019,9 hPa 0,0 l/m 0,0 km/h (0 Bft) 0 min 4,2 km/h (1 Bft)
01.07.2010 05:12 24,8 C 17,7 C 0,0 UV-I 0,0 C 58 % 87 % 0 % 1019,9 hPa 0,0 l/m 0,0 km/h (0 Bft) 0 min 0,0 km/h (0 Bft)
01.07.2010 05:14 24,8 C 17,7 C 0,0 UV-I 0,0 C 58 % 87 % 0 % 1019,9 hPa 0,0 l/m 0,0 km/h (0 Bft) 0 min 0,0 km/h (0 Bft)
01.07.2010 05:16 24,8 C 17,7 C 0,0 UV-I 0,0 C 58 % 87 % 0 % 1019,9 hPa 0,0 l/m 0,4 km/h (0 Bft) 0 min 3,2 km/h (1 Bft)
01.07.2010 05:18 24,8 C 17,7 C 0,0 UV-I 0,0 C 58 % 87 % 0 % 1019,9 hPa 0,0 l/m 0,4 km/h (0 Bft) 0 min 3,2 km/h (1 Bft)
01.07.2010 05:20 24,7 C 17,7 C 0,0 UV-I 0,0 C 58 % 87 % 0 % 1019,9 hPa 0,0 l/m 0,0 km/h (0 Bft) 0 min 0,0 km/h (0 Bft)
01.07.2010 05:22 24,7 C 17,7 C 0,0 UV-I 0,0 C 58 % 87 % 0 % 1019,9 hPa 0,0 l/m 0,4 km/h (0 Bft) 0 min 0,0 km/h (0 Bft)
01.07.2010 05:24 24,7 C 17,6 C 0,0 UV-I 0,0 C 58 % 87 % 0 % 1019,9 hPa 0,0 l/m 0,4 km/h (0 Bft) 0 min 0,0 km/h (0 Bft)
01.07.2010 05:30 24,7 C 17,6 C 0,1 UV-I 0,0 C 59 % 87 % 0 % 1019,9 hPa 0,0 l/m 0,4 km/h (0 Bft) 0 min 0,0 km/h (0 Bft)
01.07.2010 05:32 24,7 C 17,6 C 0,0 UV-I 0,0 C 58 % 87 % 0 % 1019,9 hPa 0,0 l/m 0,4 km/h (0 Bft) 0 min 0,0 km/h (0 Bft)
01.07.2010 05:34 24,7 C 17,7 C 0,0 UV-I 0,0 C 58 % 87 % 0 % 1019,9 hPa 0,0 l/m 0,4 km/h (0 Bft) 0 min 0,0 km/h (0 Bft)
01.07.2010 05:36 24,7 C 17,7 C 0,0 UV-I 0,0 C 58 % 87 % 0 % 1019,9 hPa 0,0 l/m 0,8 km/h (0 Bft) 0 min 5,1 km/h (1 Bft)
01.07.2010 05:38 24,7 C 17,7 C 0,0 UV-I 0,0 C 58 % 87 % 0 % 1019,9 hPa 0,0 l/m 1,6 km/h (1 Bft) 0 min 3,5 km/h (1 Bft)
01.07.2010 05:40 24,7 C 17,7 C 0,0 UV-I 0,0 C 59 % 87 % 0 % 1019,9 hPa 0,0 l/m 2,0 km/h (1 Bft) 0 min 6,8 km/h (2 Bft)
01.07.2010 05:44 24,7 C 17,9 C 0,0 UV-I 0,0 C 59 % 87 % 0 % 1019,9 hPa 0,0 l/m 3,2 km/h (1 Bft) 0 min 5,8 km/h (2 Bft)
01.07.2010 05:46 24,7 C 17,9 C 0,0 UV-I 0,0 C 58 % 87 % 0 % 1019,9 hPa 0,0 l/m 3,6 km/h (1 Bft) 0 min 5,1 km/h (1 Bft)
01.07.2010 05:48 24,7 C 17,9 C 0,1 UV-I 0,0 C 58 % 87 % 0 % 1019,9 hPa 0,0 l/m 3,6 km/h (1 Bft) 0 min 6,1 km/h (2 Bft)
01.07.2010 05:50 24,7 C 17,9 C 0,1 UV-I 0,0 C 58 % 87 % 0 % 1020,1 hPa 0,0 l/m 3,6 km/h (1 Bft) 0 min 6,1 km/h (2 Bft)
01.07.2010 05:52 24,6 C 17,9 C 0,3 UV-I 0,0 C 58 % 87 % 0 % 1020,1 hPa 0,0 l/m 3,6 km/h (1 Bft) 0 min 4,2 km/h (1 Bft)
01.07.2010 05:54 24,6 C 17,9 C 0,3 UV-I 0,0 C 58 % 86 % 0 % 1020,1 hPa 0,0 l/m 3,6 km/h (1 Bft) 0 min 3,5 km/h (1 Bft)
01.07.2010 05:56 24,6 C 17,9 C 0,3 UV-I 0,0 C 58 % 86 % 0 % 1020,1 hPa 0,0 l/m 3,2 km/h (1 Bft) 0 min 0,0 km/h (0 Bft)
01.07.2010 05:58 24,6 C 17,9 C 0,1 UV-I 0,0 C 58 % 86 % 0 % 1020,1 hPa 0,0 l/m 2,4 km/h (1 Bft) 0 min 0,0 km/h (0 Bft)
01.07.2010 06:00 24,6 C 17,9 C 0,1 UV-I 0,0 C 58 % 86 % 0 % 1020,1 hPa 0,0 l/m 2,0 km/h (1 Bft) 0 min 0,0 km/h (0 Bft)
01.07.2010 06:02 24,6 C 17,9 C 0,2 UV-I 0,0 C 59 % 86 % 0 % 1020,1 hPa 0,0 l/m 1,6 km/h (1 Bft) 0 min 0,0 km/h (0 Bft)
01.07.2010 06:04 24,6 C 17,9 C 0,2 UV-I 0,0 C 58 % 86 % 0 % 1020,1 hPa 0,0 l/m 1,6 km/h (1 Bft) 0 min 3,2 km/h (1 Bft)
01.07.2010 06:08 24,6 C 18,0 C 0,4 UV-I 0,0 C 58 % 86 % 0 % 1020,1 hPa 0,0 l/m 1,6 km/h (1 Bft) 0 min 4,8 km/h (1 Bft)
01.07.2010 06:10 24,6 C 18,0 C 0,4 UV-I 0,0 C 58 % 86 % 0 % 1019,9 hPa 0,0 l/m 1,6 km/h (1 Bft) 0 min 0,0 km/h (0 Bft)
01.07.2010 06:14 24,6 C 17,9 C 0,5 UV-I 0,0 C 58 % 85 % 0 % 1019,9 hPa 0,0 l/m 2,0 km/h (1 Bft) 0 min 5,5 km/h (1 Bft)
01.07.2010 06:16 24,6 C 17,9 C 0,5 UV-I 0,0 C 58 % 85 % 0 % 1019,9 hPa 0,0 l/m 2,0 km/h (1 Bft) 0 min 0,0 km/h (0 Bft)
01.07.2010 06:18 24,6 C 17,9 C 0,5 UV-I 0,0 C 58 % 85 % 0 % 1019,9 hPa 0,0 l/m 1,2 km/h (1 Bft) 0 min 0,0 km/h (0 Bft)
01.07.2010 06:20 24,6 C 17,9 C 0,5 UV-I 0,0 C 58 % 85 % 0 % 1019,9 hPa 0,0 l/m 1,2 km/h (1 Bft) 0 min 0,0 km/h (0 Bft)
01.07.2010 06:22 24,6 C 17,9 C 0,6 UV-I 0,0 C 59 % 86 % 0 % 1019,9 hPa 0,0 l/m 1,2 km/h (1 Bft) 0 min 0,0 km/h (0 Bft)
01.07.2010 06:24 24,6 C 17,9 C 0,6 UV-I 0,0 C 59 % 86 % 0 % 1019,9 hPa 0,0 l/m 1,6 km/h (1 Bft) 0 min 0,0 km/h (0 Bft)
01.07.2010 06:26 24,6 C 17,9 C 0,6 UV-I 0,0 C 59 % 86 % 0 % 1019,9 hPa 0,0 l/m 0,8 km/h (0 Bft) 0 min 0,0 km/h (0 Bft)
01.07.2010 06:28 24,6 C 17,9 C 0,7 UV-I 0,0 C 59 % 85 % 0 % 1019,9 hPa 0,0 l/m 1,2 km/h (1 Bft) 0 min 0,0 km/h (0 Bft)
01.07.2010 06:30 24,6 C 17,9 C 0,7 UV-I 0,0 C 59 % 85 % 0 % 1019,9 hPa 0,0 l/m 1,2 km/h (1 Bft) 0 min 0,0 km/h (0 Bft)
01.07.2010 06:32 24,6 C 17,9 C 0,8 UV-I 0,0 C 59 % 85 % 0 % 1019,9 hPa 0,0 l/m 1,6 km/h (1 Bft) 0 min 4,5 km/h (1 Bft)
01.07.2010 06:34 24,6 C 17,9 C 0,8 UV-I 0,0 C 59 % 85 % 0 % 1019,9 hPa 0,0 l/m 1,6 km/h (1 Bft) 0 min 5,8 km/h (2 Bft)
01.07.2010 06:36 24,6 C 17,9 C 0,8 UV-I 0,0 C 59 % 85 % 0 % 1019,9 hPa 0,0 l/m 2,0 km/h (1 Bft) 0 min 4,2 km/h (1 Bft)
01.07.2010 06:38 24,6 C 17,9 C 1,0 UV-I 0,0 C 59 % 86 % 0 % 1019,9 hPa 0,0 l/m 2,0 km/h (1 Bft) 0 min 0,0 km/h (0 Bft)
01.07.2010 06:40 24,6 C 17,9 C 1,0 UV-I 0,0 C 59 % 86 % 0 % 1019,9 hPa 0,0 l/m 2,4 km/h (1 Bft) 0 min 0,0 km/h (0 Bft)
01.07.2010 06:42 24,6 C 17,9 C 1,0 UV-I 0,0 C 59 % 86 % 0 % 1019,9 hPa 0,0 l/m 2,4 km/h (1 Bft) 0 min 3,5 km/h (1 Bft)
01.07.2010 06:44 24,6 C 18,0 C 1,0 UV-I 0,0 C 59 % 86 % 0 % 1019,9 hPa 0,0 l/m 2,8 km/h (1 Bft) 0 min 4,5 km/h (1 Bft)
01.07.2010 06:48 24,6 C 18,0 C 1,1 UV-I 0,0 C 59 % 85 % 0 % 1019,9 hPa 0,0 l/m 2,8 km/h (1 Bft) 0 min 7,4 km/h (2 Bft)
01.07.2010 06:52 24,6 C 18,1 C 1,1 UV-I 0,0 C 59 % 85 % 0 % 1019,9 hPa 0,0 l/m 3,2 km/h (1 Bft) 0 min 8,7 km/h (2 Bft)
01.07.2010 06:54 24,6 C 18,1 C 1,1 UV-I 0,0 C 59 % 85 % 0 % 1019,9 hPa 0,0 l/m 3,2 km/h (1 Bft) 0 min 3,5 km/h (1 Bft)
01.07.2010 06:56 24,6 C 18,1 C 1,1 UV-I 0,0 C 59 % 85 % 0 % 1019,9 hPa 0,0 l/m 3,2 km/h (1 Bft) 0 min 4,8 km/h (1 Bft)
01.07.2010 06:58 24,6 C 18,3 C 1,3 UV-I 0,0 C 59 % 85 % 0 % 1019,9 hPa 0,0 l/m 2,4 km/h (1 Bft) 0 min 3,2 km/h (1 Bft)
01.07.2010 07:00 24,7 C 18,2 C 1,3 UV-I 0,0 C 59 % 85 % 0 % 1019,9 hPa 0,0 l/m 2,8 km/h (1 Bft) 0 min 5,1 km/h (1 Bft)
01.07.2010 07:02 24,7 C 18,3 C 1,3 UV-I 0,0 C 59 % 85 % 0 % 1019,9 hPa 0,0 l/m 2,8 km/h (1 Bft) 0 min 4,2 km/h (1 Bft)
01.07.2010 07:04 24,7 C 18,3 C 1,3 UV-I 0,0 C 59 % 85 % 0 % 1019,9 hPa 0,0 l/m 2,0 km/h (1 Bft) 0 min 0,0 km/h (0 Bft)
01.07.2010 07:08 24,7 C 18,3 C 1,4 UV-I 0,0 C 59 % 85 % 0 % 1019,9 hPa 0,0 l/m 2,0 km/h (1 Bft) 0 min 0,0 km/h (0 Bft)
01.07.2010 07:10 24,7 C 18,3 C 1,4 UV-I 0,0 C 59 % 85 % 0 % 1019,7 hPa 0,0 l/m 2,0 km/h (1 Bft) 0 min 12,2 km/h (2 Bft)
01.07.2010 07:12 24,7 C 18,4 C 1,7 UV-I 0,0 C 59 % 84 % 0 % 1019,7 hPa 0,0 l/m 2,8 km/h (1 Bft) 0 min 5,5 km/h (1 Bft)
01.07.2010 07:16 24,7 C 18,4 C 1,7 UV-I 0,0 C 59 % 84 % 0 % 1019,7 hPa 0,0 l/m 4,4 km/h (1 Bft) 0 min 7,1 km/h (2 Bft)
01.07.2010 07:18 24,7 C 18,5 C 1,8 UV-I 0,0 C 59 % 84 % 0 % 1019,7 hPa 0,0 l/m 4,8 km/h (1 Bft) 0 min 10,6 km/h (2 Bft)
01.07.2010 07:20 24,7 C 18,5 C 1,8 UV-I 0,0 C 59 % 84 % 0 % 1019,7 hPa 0,0 l/m 6,0 km/h (2 Bft) 0 min 3,9 km/h (1 Bft)
01.07.2010 07:22 24,7 C 18,6 C 1,9 UV-I 0,0 C 59 % 84 % 0 % 1019,7 hPa 0,0 l/m 6,0 km/h (2 Bft) 0 min 5,1 km/h (1 Bft)
01.07.2010 07:24 24,7 C 18,7 C 1,9 UV-I 0,0 C 59 % 84 % 0 % 1019,7 hPa 0,0 l/m 5,6 km/h (1 Bft) 0 min 5,5 km/h (1 Bft)
01.07.2010 07:28 24,7 C 18,7 C 2,1 UV-I 0,0 C 59 % 84 % 0 % 1019,7 hPa 0,0 l/m 4,4 km/h (1 Bft) 0 min 3,5 km/h (1 Bft)
01.07.2010 07:30 24,7 C 18,7 C 2,1 UV-I 0,0 C 59 % 84 % 0 % 1019,9 hPa 0,0 l/m 4,4 km/h (1 Bft) 0 min 0,0 km/h (0 Bft)
01.07.2010 07:32 24,8 C 18,7 C 2,1 UV-I 0,0 C 59 % 84 % 0 % 1019,9 hPa 0,0 l/m 2,4 km/h (1 Bft) 0 min 7,7 km/h (2 Bft)
01.07.2010 07:38 24,8 C 18,9 C 2,3 UV-I 0,0 C 59 % 83 % 0 % 1019,9 hPa 0,0 l/m 1,6 km/h (1 Bft) 0 min 5,1 km/h (1 Bft)
01.07.2010 07:46 24,8 C 19,1 C 2,5 UV-I 0,2 C 59 % 82 % 6 % 1019,9 hPa 0,0 l/m 2,4 km/h (1 Bft) 0 min 4,2 km/h (1 Bft)
01.07.2010 07:48 24,8 C 19,2 C 2,7 UV-I 0,2 C 58 % 82 % 6 % 1019,9 hPa 0,0 l/m 2,8 km/h (1 Bft) 0 min 7,4 km/h (2 Bft)
01.07.2010 07:54 24,8 C 19,5 C 2,9 UV-I 0,3 C 58 % 82 % 9 % 1019,6 hPa 0,0 l/m 2,0 km/h (1 Bft) 0 min 7,4 km/h (2 Bft)
01.07.2010 07:56 24,8 C 19,5 C 2,9 UV-I 0,4 C 58 % 81 % 11 % 1019,6 hPa 0,0 l/m 1,6 km/h (1 Bft) 0 min 0,0 km/h (0 Bft)
01.07.2010 08:00 24,8 C 19,6 C 3,2 UV-I 0,6 C 58 % 81 % 17 % 1019,6 hPa 0,0 l/m 0,8 km/h (0 Bft) 0 min 0,0 km/h (0 Bft)
01.07.2010 08:02 24,8 C 19,7 C 3,2 UV-I 0,6 C 58 % 81 % 17 % 1019,6 hPa 0,0 l/m 0,4 km/h (0 Bft) 0 min 0,0 km/h (0 Bft)
01.07.2010 08:06 24,8 C 19,9 C 3,2 UV-I 0,7 C 58 % 80 % 20 % 1019,6 hPa 0,0 l/m 1,6 km/h (1 Bft) 0 min 3,5 km/h (1 Bft)
01.07.2010 08:08 24,8 C 20,1 C 3,3 UV-I 0,6 C 58 % 80 % 17 % 1019,6 hPa 0,0 l/m 2,0 km/h (1 Bft) 0 min 4,2 km/h (1 Bft)
01.07.2010 08:13 24,8 C 20,3 C 3,3 UV-I 2,5 C 58 % 79 % 71 % 1019,6 hPa 0,0 l/m 2,8 km/h (1 Bft) 0 min 10,0 km/h (2 Bft)
01.07.2010 08:18 24,9 C 20,5 C 3,4 UV-I 3,7 C 58 % 78 % 100 % 1019,6 hPa 0,0 l/m 3,6 km/h (1 Bft) 2 min 4,8 km/h (1 Bft)
01.07.2010 08:23 24,9 C 20,6 C 3,6 UV-I 4,1 C 58 % 77 % 100 % 1019,6 hPa 0,0 l/m 4,8 km/h (1 Bft) 2 min 10,6 km/h (2 Bft)
01.07.2010 08:28 24,9 C 20,8 C 3,8 UV-I 4,3 C 58 % 77 % 100 % 1019,6 hPa 0,0 l/m 5,2 km/h (1 Bft) 2 min 6,8 km/h (2 Bft)
01.07.2010 08:33 24,9 C 21,1 C 4,6 UV-I 5,0 C 58 % 76 % 100 % 1019,6 hPa 0,0 l/m 4,4 km/h (1 Bft) 2 min 0,0 km/h (0 Bft)
01.07.2010 08:38 25,0 C 21,4 C 5,0 UV-I 5,0 C 58 % 75 % 100 % 1019,6 hPa 0,0 l/m 3,2 km/h (1 Bft) 2 min 6,4 km/h (2 Bft)
01.07.2010 08:39 25,0 C 21,4 C 5,0 UV-I 5,0 C 58 % 75 % 100 % 1019,6 hPa 0,0 l/m 3,2 km/h (1 Bft) 1 min 6,4 km/h (2 Bft)
01.07.2010 08:40 25,0 C 21,4 C 5,0 UV-I 5,0 C 58 % 75 % 100 % 1019,6 hPa 0,0 l/m 3,2 km/h (1 Bft) 1 min 6,4 km/h (2 Bft)
01.07.2010 08:42 25,0 C 21,7 C 4,4 UV-I 4,7 C 58 % 75 % 100 % 1019,6 hPa 0,0 l/m 2,8 km/h (1 Bft) 2 min 0,0 km/h (0 Bft)
01.07.2010 08:44 25,0 C 21,7 C 4,4 UV-I 4,9 C 58 % 75 % 100 % 1019,6 hPa 0,0 l/m 2,8 km/h (1 Bft) 2 min 3,5 km/h (1 Bft)
01.07.2010 08:46 25,0 C 21,8 C 4,4 UV-I 5,0 C 58 % 74 % 100 % 1019,6 hPa 0,0 l/m 2,4 km/h (1 Bft) 2 min 4,2 km/h (1 Bft)
01.07.2010 08:48 25,0 C 21,9 C 5,2 UV-I 5,0 C 58 % 74 % 100 % 1019,6 hPa 0,0 l/m 2,4 km/h (1 Bft) 2 min 5,8 km/h (2 Bft)
01.07.2010 08:50 25,0 C 21,9 C 5,2 UV-I 5,0 C 58 % 74 % 100 % 1019,9 hPa 0,0 l/m 2,4 km/h (1 Bft) 2 min 5,8 km/h (2 Bft)
01.07.2010 08:52 25,0 C 22,2 C 5,5 UV-I 4,8 C 58 % 73 % 100 % 1019,9 hPa 0,0 l/m 2,8 km/h (1 Bft) 2 min 7,1 km/h (2 Bft)
01.07.2010 08:54 25,0 C 22,3 C 5,5 UV-I 4,7 C 58 % 73 % 100 % 1019,9 hPa 0,0 l/m 3,6 km/h (1 Bft) 2 min 6,1 km/h (2 Bft)
01.07.2010 08:56 25,0 C 22,3 C 5,5 UV-I 4,7 C 58 % 73 % 100 % 1019,9 hPa 0,0 l/m 4,4 km/h (1 Bft) 2 min 6,8 km/h (2 Bft)
01.07.2010 08:58 25,0 C 22,4 C 5,8 UV-I 4,6 C 58 % 72 % 100 % 1019,9 hPa 0,0 l/m 4,8 km/h (1 Bft) 2 min 4,2 km/h (1 Bft)
01.07.2010 09:00 25,0 C 22,5 C 5,8 UV-I 4,3 C 58 % 72 % 100 % 1019,9 hPa 0,0 l/m 4,8 km/h (1 Bft) 2 min 9,7 km/h (2 Bft)
01.07.2010 09:02 25,0 C 22,6 C 5,9 UV-I 4,2 C 58 % 72 % 100 % 1019,9 hPa 0,0 l/m 4,4 km/h (1 Bft) 2 min 0,0 km/h (0 Bft)
01.07.2010 09:04 25,0 C 22,7 C 5,9 UV-I 4,1 C 58 % 71 % 100 % 1019,9 hPa 0,0 l/m 4,4 km/h (1 Bft) 2 min 3,9 km/h (1 Bft)
01.07.2010 09:06 25,0 C 22,8 C 5,9 UV-I 4,1 C 58 % 71 % 100 % 1019,9 hPa 0,0 l/m 4,4 km/h (1 Bft) 2 min 5,8 km/h (2 Bft)
01.07.2010 09:08 25,0 C 22,8 C 6,4 UV-I 4,1 C 58 % 71 % 100 % 1019,9 hPa 0,0 l/m 4,4 km/h (1 Bft) 2 min 8,0 km/h (2 Bft)
01.07.2010 09:10 25,0 C 22,8 C 6,4 UV-I 4,1 C 58 % 71 % 100 % 1019,9 hPa 0,0 l/m 4,4 km/h (1 Bft) 2 min 8,0 km/h (2 Bft)
01.07.2010 09:12 25,0 C 23,0 C 7,3 UV-I 3,8 C 58 % 70 % 100 % 1019,9 hPa 0,0 l/m 6,0 km/h (2 Bft) 2 min 5,8 km/h (2 Bft)
01.07.2010 09:14 25,0 C 23,3 C 7,3 UV-I 3,7 C 58 % 70 % 100 % 1019,9 hPa 0,0 l/m 6,0 km/h (2 Bft) 2 min 5,1 km/h (1 Bft)
01.07.2010 09:16 25,0 C 23,2 C 7,3 UV-I 4,0 C 58 % 70 % 100 % 1019,9 hPa 0,0 l/m 6,4 km/h (2 Bft) 2 min 5,5 km/h (1 Bft)
01.07.2010 09:18 25,1 C 23,3 C 8,6 UV-I 4,2 C 58 % 70 % 100 % 1019,9 hPa 0,0 l/m 5,6 km/h (1 Bft) 2 min 0,0 km/h (0 Bft)
01.07.2010 09:20 25,1 C 23,5 C 8,6 UV-I 4,4 C 58 % 69 % 100 % 1019,9 hPa 0,0 l/m 4,4 km/h (1 Bft) 2 min 0,0 km/h (0 Bft)
01.07.2010 09:22 25,1 C 23,6 C 8,4 UV-I 4,5 C 58 % 69 % 100 % 1019,9 hPa 0,0 l/m 3,2 km/h (1 Bft) 2 min 4,2 km/h (1 Bft)
01.07.2010 09:24 25,1 C 23,7 C 8,4 UV-I 4,5 C 58 % 69 % 100 % 1019,9 hPa 0,0 l/m 2,8 km/h (1 Bft) 2 min 6,1 km/h (2 Bft)
01.07.2010 09:26 25,1 C 23,7 C 8,4 UV-I 4,6 C 58 % 69 % 100 % 1019,9 hPa 0,0 l/m 2,8 km/h (1 Bft) 2 min 5,5 km/h (1 Bft)
01.07.2010 09:28 25,1 C 23,8 C 8,7 UV-I 4,5 C 57 % 68 % 100 % 1019,9 hPa 0,0 l/m 2,4 km/h (1 Bft) 2 min 0,0 km/h (0 Bft)
01.07.2010 09:32 25,2 C 24,0 C 9,3 UV-I 4,6 C 57 % 67 % 100 % 1019,6 hPa 0,0 l/m 3,6 km/h (1 Bft) 2 min 7,7 km/h (2 Bft)
01.07.2010 09:34 25,1 C 24,3 C 9,3 UV-I 4,2 C 57 % 67 % 100 % 1019,6 hPa 0,0 l/m 4,0 km/h (1 Bft) 2 min 3,2 km/h (1 Bft)
01.07.2010 09:36 25,2 C 24,2 C 9,3 UV-I 4,5 C 57 % 67 % 100 % 1019,6 hPa 0,0 l/m 3,6 km/h (1 Bft) 2 min 4,8 km/h (1 Bft)
01.07.2010 09:38 25,2 C 24,4 C 10,6 UV-I 4,6 C 57 % 67 % 100 % 1019,6 hPa 0,0 l/m 3,2 km/h (1 Bft) 2 min 0,0 km/h (0 Bft)
01.07.2010 09:40 25,2 C 24,5 C 10,6 UV-I 4,6 C 57 % 66 % 100 % 1019,6 hPa 0,0 l/m 4,0 km/h (1 Bft) 2 min 9,3 km/h (2 Bft)
01.07.2010 09:42 25,2 C 24,5 C 10,5 UV-I 4,7 C 57 % 66 % 100 % 1019,6 hPa 0,0 l/m 3,2 km/h (1 Bft) 2 min 3,5 km/h (1 Bft)
01.07.2010 09:44 25,2 C 24,6 C 10,5 UV-I 4,8 C 57 % 66 % 100 % 1019,6 hPa 0,0 l/m 2,8 km/h (1 Bft) 2 min 4,5 km/h (1 Bft)
01.07.2010 09:46 25,2 C 24,7 C 10,5 UV-I 4,7 C 57 % 66 % 100 % 1019,6 hPa 0,0 l/m 3,2 km/h (1 Bft) 2 min 4,8 km/h (1 Bft)
01.07.2010 09:50 25,2 C 24,8 C 10,1 UV-I 4,6 C 57 % 65 % 100 % 1019,9 hPa 0,0 l/m 3,6 km/h (1 Bft) 2 min 3,2 km/h (1 Bft)
01.07.2010 09:52 25,2 C 25,0 C 11,7 UV-I 4,7 C 57 % 64 % 100 % 1019,9 hPa 0,0 l/m 3,2 km/h (1 Bft) 2 min 5,5 km/h (1 Bft)
01.07.2010 09:54 25,2 C 25,1 C 11,7 UV-I 4,9 C 57 % 64 % 100 % 1019,9 hPa 0,0 l/m 3,6 km/h (1 Bft) 2 min 0,0 km/h (0 Bft)
01.07.2010 09:56 25,2 C 25,3 C 11,7 UV-I 4,9 C 57 % 64 % 100 % 1019,9 hPa 0,0 l/m 3,6 km/h (1 Bft) 2 min 7,4 km/h (2 Bft)
01.07.2010 09:58 25,2 C 25,4 C 12,9 UV-I 5,2 C 57 % 63 % 100 % 1019,9 hPa 0,0 l/m 4,0 km/h (1 Bft) 2 min 5,5 km/h (1 Bft)
01.07.2010 10:00 25,2 C 25,5 C 12,9 UV-I 5,3 C 57 % 63 % 100 % 1019,9 hPa 0,0 l/m 4,0 km/h (1 Bft) 2 min 5,1 km/h (1 Bft)
01.07.2010 10:02 25,2 C 25,6 C 13,1 UV-I 5,4 C 57 % 62 % 100 % 1019,9 hPa 0,0 l/m 4,0 km/h (1 Bft) 2 min 8,0 km/h (2 Bft)
01.07.2010 10:04 25,2 C 25,7 C 13,1 UV-I 5,6 C 57 % 62 % 100 % 1019,9 hPa 0,0 l/m 4,4 km/h (1 Bft) 2 min 10,6 km/h (2 Bft)
01.07.2010 10:06 25,2 C 25,9 C 13,1 UV-I 5,4 C 57 % 61 % 100 % 1019,9 hPa 0,0 l/m 5,6 km/h (1 Bft) 2 min 9,3 km/h (2 Bft)
01.07.2010 10:08 25,3 C 25,9 C 13,2 UV-I 5,4 C 57 % 61 % 100 % 1019,9 hPa 0,0 l/m 5,2 km/h (1 Bft) 2 min 6,8 km/h (2 Bft)
01.07.2010 10:10 25,3 C 25,9 C 13,2 UV-I 5,4 C 57 % 61 % 100 % 1019,6 hPa 0,0 l/m 5,2 km/h (1 Bft) 2 min 6,8 km/h (2 Bft)
01.07.2010 10:12 25,3 C 26,1 C 13,4 UV-I 5,6 C 57 % 59 % 100 % 1019,6 hPa 0,0 l/m 4,4 km/h (1 Bft) 2 min 3,9 km/h (1 Bft)
01.07.2010 10:14 25,2 C 26,1 C 13,4 UV-I 5,8 C 57 % 60 % 100 % 1019,6 hPa 0,0 l/m 4,4 km/h (1 Bft) 2 min 6,1 km/h (2 Bft)
01.07.2010 10:16 25,2 C 26,2 C 13,4 UV-I 5,6 C 57 % 60 % 100 % 1019,6 hPa 0,0 l/m 4,0 km/h (1 Bft) 2 min 5,8 km/h (2 Bft)
01.07.2010 10:18 25,2 C 26,2 C 13,2 UV-I 5,6 C 57 % 60 % 100 % 1019,6 hPa 0,0 l/m 4,4 km/h (1 Bft) 2 min 3,5 km/h (1 Bft)
01.07.2010 10:20 25,2 C 26,4 C 13,2 UV-I 5,2 C 57 % 60 % 100 % 1019,6 hPa 0,0 l/m 4,4 km/h (1 Bft) 2 min 13,2 km/h (3 Bft)
01.07.2010 10:22 25,2 C 26,5 C 12,8 UV-I 5,2 C 57 % 59 % 100 % 1019,6 hPa 0,0 l/m 5,2 km/h (1 Bft) 2 min 6,1 km/h (2 Bft)
01.07.2010 10:24 25,4 C 26,4 C 12,8 UV-I 5,4 C 57 % 59 % 100 % 1019,6 hPa 0,0 l/m 4,8 km/h (1 Bft) 2 min 3,9 km/h (1 Bft)
01.07.2010 10:26 25,4 C 26,5 C 12,8 UV-I 5,4 C 57 % 59 % 100 % 1019,6 hPa 0,0 l/m 3,6 km/h (1 Bft) 2 min 3,5 km/h (1 Bft)
01.07.2010 10:28 25,4 C 26,7 C 12,2 UV-I 5,3 C 57 % 59 % 100 % 1019,6 hPa 0,0 l/m 3,6 km/h (1 Bft) 2 min 6,8 km/h (2 Bft)
01.07.2010 10:30 25,4 C 26,7 C 12,2 UV-I 5,3 C 57 % 59 % 100 % 1019,7 hPa 0,0 l/m 3,6 km/h (1 Bft) 2 min 6,8 km/h (2 Bft)
01.07.2010 10:32 25,4 C 26,8 C 11,9 UV-I 5,0 C 57 % 58 % 100 % 1019,7 hPa 0,0 l/m 4,0 km/h (1 Bft) 2 min 3,9 km/h (1 Bft)
01.07.2010 10:34 25,4 C 27,1 C 11,9 UV-I 4,8 C 57 % 58 % 100 % 1019,7 hPa 0,0 l/m 3,2 km/h (1 Bft) 2 min 0,0 km/h (0 Bft)
01.07.2010 10:36 25,4 C 27,1 C 11,9 UV-I 5,0 C 57 % 57 % 100 % 1019,7 hPa 0,0 l/m 3,6 km/h (1 Bft) 2 min 3,9 km/h (1 Bft)
01.07.2010 10:38 25,4 C 27,2 C 11,7 UV-I 4,9 C 57 % 57 % 100 % 1019,7 hPa 0,0 l/m 4,0 km/h (1 Bft) 2 min 3,5 km/h (1 Bft)
01.07.2010 10:40 25,4 C 27,2 C 11,7 UV-I 4,9 C 57 % 57 % 100 % 1019,7 hPa 0,0 l/m 4,0 km/h (1 Bft) 2 min 6,8 km/h (2 Bft)
01.07.2010 10:44 25,4 C 27,5 C 11,9 UV-I 4,4 C 57 % 54 % 100 % 1019,7 hPa 0,0 l/m 4,8 km/h (1 Bft) 2 min 10,0 km/h (2 Bft)
01.07.2010 10:46 25,4 C 27,5 C 11,9 UV-I 4,4 C 57 % 54 % 100 % 1019,7 hPa 0,0 l/m 5,2 km/h (1 Bft) 2 min 3,2 km/h (1 Bft)
01.07.2010 10:48 25,4 C 27,5 C 11,6 UV-I 4,4 C 57 % 54 % 100 % 1019,7 hPa 0,0 l/m 5,6 km/h (1 Bft) 2 min 8,0 km/h (2 Bft)
01.07.2010 10:50 25,4 C 27,5 C 11,6 UV-I 4,4 C 57 % 54 % 100 % 1019,6 hPa 0,0 l/m 5,6 km/h (1 Bft) 2 min 8,0 km/h (2 Bft)
01.07.2010 10:52 25,5 C 27,6 C 11,6 UV-I 4,4 C 57 % 55 % 100 % 1019,6 hPa 0,0 l/m 5,2 km/h (1 Bft) 2 min 7,4 km/h (2 Bft)
01.07.2010 10:54 25,5 C 27,7 C 11,6 UV-I 4,4 C 57 % 55 % 100 % 1019,6 hPa 0,0 l/m 4,4 km/h (1 Bft) 2 min 0,0 km/h (0 Bft)
01.07.2010 10:56 25,5 C 27,7 C 11,6 UV-I 4,4 C 57 % 54 % 100 % 1019,6 hPa 0,0 l/m 4,4 km/h (1 Bft) 2 min 6,1 km/h (2 Bft)
01.07.2010 10:58 25,5 C 27,9 C 11,3 UV-I 4,2 C 57 % 55 % 100 % 1019,6 hPa 0,0 l/m 4,4 km/h (1 Bft) 2 min 3,2 km/h (1 Bft)
01.07.2010 11:00 25,5 C 27,8 C 11,3 UV-I 4,4 C 56 % 55 % 100 % 1019,6 hPa 0,0 l/m 4,4 km/h (1 Bft) 2 min 3,2 km/h (1 Bft)
01.07.2010 11:02 25,5 C 27,9 C 10,8 UV-I 4,4 C 56 % 54 % 100 % 1019,6 hPa 0,0 l/m 4,4 km/h (1 Bft) 2 min 0,0 km/h (0 Bft)
01.07.2010 11:04 25,5 C 27,9 C 10,8 UV-I 4,4 C 57 % 54 % 100 % 1019,6 hPa 0,0 l/m 4,0 km/h (1 Bft) 2 min 3,2 km/h (1 Bft)
01.07.2010 11:07 25,6 C 27,8 C 10,3 UV-I 4,3 C 56 % 52 % 100 % 1019,6 hPa 0,0 l/m 5,6 km/h (1 Bft) 2 min 14,5 km/h (3 Bft)
01.07.2010 11:10 25,6 C 27,8 C 10,3 UV-I 4,3 C 56 % 52 % 100 % 1019,6 hPa 0,0 l/m 5,6 km/h (1 Bft) 2 min 14,5 km/h (3 Bft)
01.07.2010 11:12 25,6 C 27,9 C 10,5 UV-I 3,8 C 56 % 52 % 100 % 1019,6 hPa 0,0 l/m 5,6 km/h (1 Bft) 2 min 4,2 km/h (1 Bft)
01.07.2010 11:14 25,6 C 27,9 C 10,5 UV-I 4,1 C 56 % 53 % 100 % 1019,6 hPa 0,0 l/m 5,2 km/h (1 Bft) 2 min 4,5 km/h (1 Bft)
01.07.2010 11:16 25,6 C 27,9 C 10,5 UV-I 4,3 C 56 % 52 % 100 % 1019,6 hPa 0,0 l/m 5,2 km/h (1 Bft) 2 min 3,9 km/h (1 Bft)
01.07.2010 11:18 25,6 C 28,1 C 10,9 UV-I 4,2 C 56 % 52 % 100 % 1019,6 hPa 0,0 l/m 4,0 km/h (1 Bft) 2 min 3,2 km/h (1 Bft)
01.07.2010 11:20 25,6 C 28,1 C 10,9 UV-I 4,5 C 56 % 53 % 100 % 1019,6 hPa 0,0 l/m 2,0 km/h (1 Bft) 2 min 0,0 km/h (0 Bft)
01.07.2010 11:22 25,6 C 28,1 C 12,0 UV-I 5,0 C 56 % 51 % 100 % 1019,6 hPa 0,0 l/m 2,0 km/h (1 Bft) 2 min 4,2 km/h (1 Bft)
01.07.2010 11:24 25,6 C 28,3 C 12,0 UV-I 5,1 C 56 % 49 % 100 % 1019,6 hPa 0,0 l/m 2,8 km/h (1 Bft) 2 min 9,7 km/h (2 Bft)
01.07.2010 11:26 25,6 C 28,3 C 12,0 UV-I 5,2 C 56 % 49 % 100 % 1019,6 hPa 0,0 l/m 2,8 km/h (1 Bft) 2 min 5,8 km/h (2 Bft)
01.07.2010 11:28 25,6 C 28,3 C 13,4 UV-I 5,5 C 56 % 50 % 100 % 1019,6 hPa 0,0 l/m 2,4 km/h (1 Bft) 2 min 0,0 km/h (0 Bft)
01.07.2010 11:30 25,6 C 28,3 C 13,4 UV-I 5,5 C 56 % 50 % 100 % 1019,5 hPa 0,0 l/m 2,4 km/h (1 Bft) 2 min 0,0 km/h (0 Bft)
01.07.2010 11:32 25,6 C 28,5 C 13,4 UV-I 6,0 C 56 % 49 % 100 % 1019,5 hPa 0,0 l/m 2,8 km/h (1 Bft) 2 min 0,0 km/h (0 Bft)
01.07.2010 11:36 25,7 C 28,8 C 13,4 UV-I 6,0 C 56 % 49 % 100 % 1019,5 hPa 0,0 l/m 3,2 km/h (1 Bft) 2 min 8,7 km/h (2 Bft)
01.07.2010 11:38 25,6 C 28,9 C 11,7 UV-I 5,6 C 56 % 48 % 100 % 1019,5 hPa 0,0 l/m 3,6 km/h (1 Bft) 2 min 4,8 km/h (1 Bft)
01.07.2010 11:40 25,7 C 29,0 C 11,7 UV-I 5,2 C 56 % 48 % 100 % 1019,5 hPa 0,0 l/m 4,0 km/h (1 Bft) 2 min 0,0 km/h (0 Bft)
01.07.2010 11:44 25,7 C 29,1 C 10,4 UV-I 5,0 C 56 % 46 % 100 % 1019,5 hPa 0,0 l/m 4,0 km/h (1 Bft) 2 min 3,2 km/h (1 Bft)
01.07.2010 11:46 25,7 C 28,9 C 10,4 UV-I 5,2 C 56 % 45 % 100 % 1019,5 hPa 0,0 l/m 4,4 km/h (1 Bft) 2 min 3,2 km/h (1 Bft)
01.07.2010 11:48 25,7 C 29,0 C 10,8 UV-I 5,2 C 56 % 45 % 100 % 1019,5 hPa 0,0 l/m 4,0 km/h (1 Bft) 2 min 9,0 km/h (2 Bft)
01.07.2010 11:50 25,7 C 29,0 C 10,8 UV-I 5,2 C 56 % 45 % 100 % 1019,7 hPa 0,0 l/m 4,0 km/h (1 Bft) 2 min 9,0 km/h (2 Bft)
01.07.2010 11:52 25,7 C 29,0 C 10,5 UV-I 5,1 C 56 % 46 % 100 % 1019,7 hPa 0,0 l/m 4,0 km/h (1 Bft) 2 min 4,8 km/h (1 Bft)
01.07.2010 11:54 25,7 C 29,1 C 10,5 UV-I 5,0 C 56 % 45 % 100 % 1019,7 hPa 0,0 l/m 4,0 km/h (1 Bft) 2 min 4,5 km/h (1 Bft)
01.07.2010 11:56 25,7 C 29,1 C 10,5 UV-I 5,0 C 55 % 45 % 100 % 1019,7 hPa 0,0 l/m 4,4 km/h (1 Bft) 2 min 5,5 km/h (1 Bft)
01.07.2010 11:58 25,8 C 28,9 C 10,1 UV-I 5,1 C 56 % 45 % 100 % 1019,7 hPa 0,0 l/m 5,2 km/h (1 Bft) 2 min 7,4 km/h (2 Bft)
01.07.2010 12:00 25,7 C 28,8 C 10,1 UV-I 5,1 C 55 % 45 % 100 % 1019,7 hPa 0,0 l/m 4,4 km/h (1 Bft) 2 min 0,0 km/h (0 Bft)
01.07.2010 12:02 25,8 C 28,9 C 10,7 UV-I 5,1 C 55 % 46 % 100 % 1019,7 hPa 0,0 l/m 4,4 km/h (1 Bft) 2 min 10,6 km/h (2 Bft)
01.07.2010 12:04 25,8 C 28,8 C 10,7 UV-I 5,3 C 55 % 46 % 100 % 1019,7 hPa 0,0 l/m 4,8 km/h (1 Bft) 2 min 3,9 km/h (1 Bft)
01.07.2010 12:06 25,8 C 29,1 C 10,7 UV-I 5,7 C 55 % 45 % 100 % 1019,7 hPa 0,0 l/m 4,0 km/h (1 Bft) 2 min 4,2 km/h (1 Bft)
01.07.2010 12:08 25,8 C 29,2 C 11,7 UV-I 6,0 C 55 % 45 % 100 % 1019,7 hPa 0,0 l/m 3,6 km/h (1 Bft) 2 min 3,5 km/h (1 Bft)
01.07.2010 12:10 25,8 C 29,2 C 11,7 UV-I 6,0 C 55 % 45 % 100 % 1019,5 hPa 0,0 l/m 3,6 km/h (1 Bft) 2 min 3,5 km/h (1 Bft)
01.07.2010 12:12 25,8 C 29,6 C 11,1 UV-I 6,1 C 55 % 45 % 100 % 1019,5 hPa 0,0 l/m 4,4 km/h (1 Bft) 2 min 4,2 km/h (1 Bft)
01.07.2010 12:14 25,8 C 29,7 C 11,1 UV-I 6,2 C 55 % 43 % 100 % 1019,5 hPa 0,0 l/m 4,8 km/h (1 Bft) 2 min 9,7 km/h (2 Bft)
01.07.2010 12:16 25,8 C 29,7 C 11,1 UV-I 6,2 C 55 % 43 % 100 % 1019,5 hPa 0,0 l/m 5,6 km/h (1 Bft) 2 min 9,3 km/h (2 Bft)
01.07.2010 12:18 25,8 C 29,5 C 10,5 UV-I 6,3 C 55 % 44 % 100 % 1019,5 hPa 0,0 l/m 6,0 km/h (2 Bft) 2 min 7,4 km/h (2 Bft)
01.07.2010 12:22 25,9 C 29,5 C 8,8 UV-I 5,7 C 55 % 45 % 100 % 1019,5 hPa 0,0 l/m 4,4 km/h (1 Bft) 2 min 3,5 km/h (1 Bft)
01.07.2010 12:24 25,9 C 29,5 C 8,8 UV-I 5,5 C 55 % 45 % 100 % 1019,5 hPa 0,0 l/m 4,0 km/h (1 Bft) 2 min 6,4 km/h (2 Bft)
01.07.2010 12:26 25,9 C 29,5 C 8,8 UV-I 5,0 C 55 % 44 % 100 % 1019,5 hPa 0,0 l/m 3,2 km/h (1 Bft) 2 min 4,5 km/h (1 Bft)
01.07.2010 12:28 25,9 C 29,5 C 7,0 UV-I 4,5 C 55 % 44 % 100 % 1019,5 hPa 0,0 l/m 2,8 km/h (1 Bft) 2 min 3,5 km/h (1 Bft)
01.07.2010 12:30 25,9 C 29,5 C 7,0 UV-I 4,5 C 55 % 44 % 100 % 1019,4 hPa 0,0 l/m 2,8 km/h (1 Bft) 2 min 3,5 km/h (1 Bft)
01.07.2010 12:32 25,9 C 29,6 C 9,7 UV-I 4,2 C 55 % 44 % 100 % 1019,4 hPa 0,0 l/m 3,2 km/h (1 Bft) 2 min 4,2 km/h (1 Bft)
01.07.2010 12:36 25,9 C 29,9 C 9,7 UV-I 5,1 C 55 % 42 % 100 % 1019,4 hPa 0,0 l/m 3,6 km/h (1 Bft) 2 min 5,8 km/h (2 Bft)
01.07.2010 12:38 26,0 C 30,0 C 11,3 UV-I 5,6 C 55 % 41 % 100 % 1019,4 hPa 0,0 l/m 4,0 km/h (1 Bft) 2 min 8,0 km/h (2 Bft)
01.07.2010 12:40 25,9 C 30,0 C 11,3 UV-I 5,6 C 55 % 40 % 100 % 1019,4 hPa 0,0 l/m 4,4 km/h (1 Bft) 2 min 15,4 km/h (3 Bft)
01.07.2010 12:42 26,0 C 30,1 C 10,9 UV-I 5,6 C 55 % 39 % 100 % 1019,4 hPa 0,0 l/m 4,8 km/h (1 Bft) 2 min 6,8 km/h (2 Bft)
01.07.2010 12:44 26,0 C 30,1 C 10,9 UV-I 5,9 C 55 % 39 % 100 % 1019,4 hPa 0,0 l/m 5,6 km/h (1 Bft) 2 min 5,5 km/h (1 Bft)
01.07.2010 12:46 26,0 C 30,1 C 10,9 UV-I 5,8 C 54 % 39 % 100 % 1019,4 hPa 0,0 l/m 6,0 km/h (2 Bft) 2 min 3,2 km/h (1 Bft)
01.07.2010 12:52 26,0 C 30,3 C 11,0 UV-I 5,8 C 54 % 40 % 100 % 1019,4 hPa 0,0 l/m 6,0 km/h (2 Bft) 2 min 9,7 km/h (2 Bft)
01.07.2010 12:54 26,0 C 30,4 C 11,0 UV-I 5,6 C 54 % 39 % 100 % 1019,4 hPa 0,0 l/m 6,4 km/h (2 Bft) 2 min 7,4 km/h (2 Bft)
01.07.2010 12:56 26,0 C 30,4 C 11,0 UV-I 5,2 C 54 % 39 % 100 % 1019,4 hPa 0,0 l/m 5,6 km/h (1 Bft) 2 min 5,8 km/h (2 Bft)
01.07.2010 12:58 26,1 C 30,5 C 11,0 UV-I 4,8 C 54 % 40 % 100 % 1019,4 hPa 0,0 l/m 6,0 km/h (2 Bft) 2 min 4,2 km/h (1 Bft)
01.07.2010 13:00 26,1 C 30,5 C 11,0 UV-I 4,8 C 54 % 39 % 100 % 1019,4 hPa 0,0 l/m 5,2 km/h (1 Bft) 2 min 10,3 km/h (2 Bft)
01.07.2010 13:02 26,1 C 30,5 C 10,2 UV-I 4,9 C 54 % 38 % 100 % 1019,4 hPa 0,0 l/m 5,2 km/h (1 Bft) 2 min 5,5 km/h (1 Bft)
01.07.2010 13:04 26,1 C 30,7 C 10,2 UV-I 4,7 C 54 % 37 % 100 % 1019,4 hPa 0,0 l/m 5,2 km/h (1 Bft) 2 min 8,4 km/h (2 Bft)
01.07.2010 13:08 26,1 C 30,7 C 10,1 UV-I 4,8 C 53 % 37 % 100 % 1019,4 hPa 0,0 l/m 4,8 km/h (1 Bft) 2 min 6,4 km/h (2 Bft)
01.07.2010 13:10 26,1 C 30,7 C 10,1 UV-I 4,8 C 53 % 37 % 100 % 1019,5 hPa 0,0 l/m 4,8 km/h (1 Bft) 2 min 16,4 km/h (3 Bft)
01.07.2010 13:12 26,2 C 30,6 C 9,8 UV-I 4,7 C 53 % 39 % 100 % 1019,5 hPa 0,0 l/m 4,4 km/h (1 Bft) 2 min 6,4 km/h (2 Bft)
01.07.2010 13:14 26,2 C 30,8 C 9,8 UV-I 4,6 C 53 % 37 % 100 % 1019,5 hPa 0,0 l/m 3,2 km/h (1 Bft) 2 min 5,1 km/h (1 Bft)
01.07.2010 13:16 26,2 C 30,8 C 9,8 UV-I 4,6 C 53 % 37 % 100 % 1019,5 hPa 0,0 l/m 4,4 km/h (1 Bft) 2 min 4,5 km/h (1 Bft)
01.07.2010 13:18 26,2 C 30,8 C 10,2 UV-I 4,5 C 53 % 38 % 100 % 1019,5 hPa 0,0 l/m 4,8 km/h (1 Bft) 2 min 4,8 km/h (1 Bft)
01.07.2010 13:20 26,2 C 30,8 C 10,2 UV-I 4,5 C 53 % 38 % 100 % 1019,5 hPa 0,0 l/m 4,8 km/h (1 Bft) 2 min 5,1 km/h (1 Bft)
01.07.2010 13:22 26,2 C 30,9 C 10,2 UV-I 4,5 C 53 % 37 % 100 % 1019,5 hPa 0,0 l/m 4,8 km/h (1 Bft) 2 min 7,1 km/h (2 Bft)
01.07.2010 13:24 26,3 C 30,8 C 10,2 UV-I 4,6 C 53 % 38 % 100 % 1019,5 hPa 0,0 l/m 4,8 km/h (1 Bft) 2 min 3,2 km/h (1 Bft)
01.07.2010 13:26 26,3 C 30,9 C 10,2 UV-I 4,6 C 53 % 38 % 100 % 1019,5 hPa 0,0 l/m 3,6 km/h (1 Bft) 2 min 3,5 km/h (1 Bft)
01.07.2010 13:30 26,3 C 31,0 C 10,3 UV-I 4,7 C 53 % 37 % 100 % 1019,2 hPa 0,0 l/m 3,2 km/h (1 Bft) 2 min 4,2 km/h (1 Bft)
01.07.2010 13:32 26,4 C 31,1 C 10,3 UV-I 4,6 C 53 % 37 % 100 % 1019,2 hPa 0,0 l/m 4,0 km/h (1 Bft) 2 min 9,0 km/h (2 Bft)
01.07.2010 13:34 26,4 C 31,1 C 10,3 UV-I 4,4 C 53 % 38 % 100 % 1019,2 hPa 0,0 l/m 4,0 km/h (1 Bft) 2 min 4,8 km/h (1 Bft)
01.07.2010 13:36 26,4 C 31,0 C 10,3 UV-I 4,4 C 53 % 37 % 100 % 1019,2 hPa 0,0 l/m 4,8 km/h (1 Bft) 2 min 7,1 km/h (2 Bft)
01.07.2010 13:38 26,4 C 30,9 C 10,0 UV-I 4,4 C 52 % 37 % 100 % 1019,2 hPa 0,0 l/m 6,0 km/h (2 Bft) 2 min 5,5 km/h (1 Bft)
01.07.2010 13:40 26,4 C 30,9 C 10,0 UV-I 4,3 C 52 % 38 % 100 % 1019,2 hPa 0,0 l/m 6,4 km/h (2 Bft) 2 min 22,2 km/h (4 Bft)
01.07.2010 13:42 26,4 C 30,9 C 9,7 UV-I 4,3 C 52 % 37 % 100 % 1019,2 hPa 0,0 l/m 6,0 km/h (2 Bft) 2 min 7,4 km/h (2 Bft)
01.07.2010 13:46 26,5 C 30,8 C 9,7 UV-I 4,3 C 52 % 38 % 100 % 1019,2 hPa 0,0 l/m 5,6 km/h (1 Bft) 2 min 3,5 km/h (1 Bft)
01.07.2010 13:48 26,5 C 30,8 C 9,7 UV-I 4,2 C 52 % 38 % 100 % 1019,2 hPa 0,0 l/m 5,2 km/h (1 Bft) 2 min 11,9 km/h (2 Bft)
01.07.2010 13:50 26,5 C 30,8 C 9,7 UV-I 4,2 C 52 % 38 % 100 % 1019,5 hPa 0,0 l/m 5,2 km/h (1 Bft) 2 min 11,9 km/h (2 Bft)
01.07.2010 13:52 26,5 C 30,8 C 9,7 UV-I 3,9 C 52 % 38 % 100 % 1019,5 hPa 0,0 l/m 5,2 km/h (1 Bft) 2 min 3,2 km/h (1 Bft)
01.07.2010 13:56 26,6 C 30,8 C 9,7 UV-I 3,5 C 52 % 37 % 100 % 1019,5 hPa 0,0 l/m 5,2 km/h (1 Bft) 2 min 8,7 km/h (2 Bft)
01.07.2010 13:58 26,6 C 30,7 C 8,0 UV-I 3,4 C 52 % 37 % 97 % 1019,5 hPa 0,0 l/m 5,2 km/h (1 Bft) 2 min 5,1 km/h (1 Bft)
01.07.2010 14:00 26,6 C 30,7 C 8,0 UV-I 3,0 C 52 % 38 % 86 % 1019,5 hPa 0,0 l/m 4,0 km/h (1 Bft) 2 min 3,5 km/h (1 Bft)
01.07.2010 14:02 26,6 C 30,6 C 9,0 UV-I 3,2 C 52 % 38 % 91 % 1019,5 hPa 0,0 l/m 4,4 km/h (1 Bft) 2 min 8,7 km/h (2 Bft)
01.07.2010 14:06 26,7 C 30,7 C 9,0 UV-I 3,4 C 51 % 39 % 97 % 1019,5 hPa 0,0 l/m 5,2 km/h (1 Bft) 2 min 6,8 km/h (2 Bft)
01.07.2010 14:10 26,7 C 30,7 C 10,0 UV-I 3,5 C 51 % 39 % 100 % 1019,2 hPa 0,0 l/m 5,2 km/h (1 Bft) 2 min 7,7 km/h (2 Bft)
01.07.2010 14:12 26,7 C 30,9 C 10,1 UV-I 3,9 C 51 % 38 % 100 % 1019,2 hPa 0,0 l/m 5,2 km/h (1 Bft) 2 min 0,0 km/h (0 Bft)
01.07.2010 14:16 26,8 C 31,0 C 10,1 UV-I 4,1 C 51 % 38 % 100 % 1019,2 hPa 0,0 l/m 4,8 km/h (1 Bft) 2 min 6,8 km/h (2 Bft)
01.07.2010 14:18 26,8 C 31,0 C 9,4 UV-I 4,1 C 51 % 37 % 100 % 1019,2 hPa 0,0 l/m 5,2 km/h (1 Bft) 2 min 10,3 km/h (2 Bft)
01.07.2010 14:23 26,9 C 30,9 C 8,7 UV-I 3,6 C 51 % 38 % 100 % 1019,2 hPa 0,0 l/m 6,0 km/h (2 Bft) 2 min 6,4 km/h (2 Bft)
01.07.2010 14:26 26,9 C 31,0 C 9,8 UV-I 3,8 C 51 % 37 % 100 % 1019,2 hPa 0,0 l/m 6,0 km/h (2 Bft) 2 min 8,4 km/h (2 Bft)
01.07.2010 14:28 26,9 C 31,0 C 9,8 UV-I 3,8 C 51 % 37 % 100 % 1019,2 hPa 0,0 l/m 6,0 km/h (2 Bft) 2 min 8,4 km/h (2 Bft)
01.07.2010 14:30 26,9 C 31,0 C 9,8 UV-I 3,8 C 51 % 37 % 100 % 1019,1 hPa 0,0 l/m 6,0 km/h (2 Bft) 2 min 8,4 km/h (2 Bft)
01.07.2010 14:32 27,0 C 31,1 C 9,4 UV-I 3,9 C 51 % 38 % 100 % 1019,1 hPa 0,0 l/m 4,4 km/h (1 Bft) 2 min 5,5 km/h (1 Bft)
01.07.2010 14:34 27,0 C 31,0 C 9,4 UV-I 4,1 C 51 % 38 % 100 % 1019,1 hPa 0,0 l/m 4,4 km/h (1 Bft) 2 min 3,2 km/h (1 Bft)
01.07.2010 14:36 27,0 C 31,1 C 9,4 UV-I 4,0 C 51 % 38 % 100 % 1019,1 hPa 0,0 l/m 4,0 km/h (1 Bft) 2 min 5,8 km/h (2 Bft)
01.07.2010 14:38 27,0 C 31,1 C 8,5 UV-I 4,0 C 51 % 36 % 100 % 1019,1 hPa 0,0 l/m 4,0 km/h (1 Bft) 2 min 9,7 km/h (2 Bft)
01.07.2010 14:40 27,1 C 31,1 C 8,5 UV-I 3,8 C 50 % 37 % 100 % 1019,1 hPa 0,0 l/m 4,0 km/h (1 Bft) 2 min 5,8 km/h (2 Bft)
01.07.2010 14:42 27,1 C 31,1 C 8,1 UV-I 3,7 C 50 % 37 % 100 % 1019,1 hPa 0,0 l/m 4,4 km/h (1 Bft) 2 min 10,0 km/h (2 Bft)
01.07.2010 14:44 27,1 C 30,9 C 8,1 UV-I 3,8 C 50 % 38 % 100 % 1019,1 hPa 0,0 l/m 3,6 km/h (1 Bft) 2 min 0,0 km/h (0 Bft)
01.07.2010 14:46 27,1 C 30,9 C 8,1 UV-I 3,5 C 50 % 37 % 100 % 1019,1 hPa 0,0 l/m 3,6 km/h (1 Bft) 2 min 0,0 km/h (0 Bft)
01.07.2010 14:48 27,2 C 30,7 C 7,2 UV-I 3,5 C 50 % 38 % 100 % 1019,1 hPa 0,0 l/m 3,6 km/h (1 Bft) 2 min 5,1 km/h (1 Bft)
01.07.2010 14:50 27,2 C 30,7 C 7,2 UV-I 3,5 C 50 % 38 % 100 % 1018,9 hPa 0,0 l/m 3,6 km/h (1 Bft) 2 min 5,1 km/h (1 Bft)
01.07.2010 14:52 27,2 C 30,8 C 8,6 UV-I 3,2 C 50 % 39 % 91 % 1018,9 hPa 0,0 l/m 3,2 km/h (1 Bft) 2 min 4,8 km/h (1 Bft)
01.07.2010 14:54 27,2 C 30,9 C 8,6 UV-I 3,3 C 50 % 40 % 94 % 1018,9 hPa 0,0 l/m 2,4 km/h (1 Bft) 2 min 4,2 km/h (1 Bft)
01.07.2010 14:56 27,2 C 31,0 C 8,6 UV-I 3,6 C 50 % 37 % 100 % 1018,9 hPa 0,0 l/m 3,2 km/h (1 Bft) 2 min 8,4 km/h (2 Bft)
01.07.2010 14:58 27,2 C 31,3 C 9,7 UV-I 3,6 C 50 % 38 % 100 % 1018,9 hPa 0,0 l/m 3,2 km/h (1 Bft) 2 min 3,9 km/h (1 Bft)
01.07.2010 15:00 27,2 C 31,3 C 9,7 UV-I 3,9 C 50 % 38 % 100 % 1018,9 hPa 0,0 l/m 4,0 km/h (1 Bft) 2 min 4,2 km/h (1 Bft)
01.07.2010 15:02 27,2 C 31,4 C 9,6 UV-I 4,1 C 50 % 38 % 100 % 1018,9 hPa 0,0 l/m 4,4 km/h (1 Bft) 2 min 6,4 km/h (2 Bft)
01.07.2010 15:04 27,4 C 31,5 C 9,6 UV-I 4,1 C 50 % 37 % 100 % 1018,9 hPa 0,0 l/m 4,4 km/h (1 Bft) 2 min 6,1 km/h (2 Bft)
01.07.2010 15:06 27,4 C 31,5 C 9,6 UV-I 4,2 C 50 % 37 % 100 % 1018,9 hPa 0,0 l/m 4,4 km/h (1 Bft) 2 min 4,8 km/h (1 Bft)
01.07.2010 15:08 27,4 C 31,7 C 10,3 UV-I 4,4 C 50 % 37 % 100 % 1018,9 hPa 0,0 l/m 5,2 km/h (1 Bft) 2 min 3,9 km/h (1 Bft)
01.07.2010 15:10 27,4 C 31,7 C 10,3 UV-I 4,4 C 50 % 37 % 100 % 1019,1 hPa 0,0 l/m 5,2 km/h (1 Bft) 2 min 3,9 km/h (1 Bft)
01.07.2010 15:12 27,5 C 31,9 C 10,8 UV-I 4,6 C 50 % 36 % 100 % 1019,1 hPa 0,0 l/m 4,4 km/h (1 Bft) 2 min 3,5 km/h (1 Bft)
01.07.2010 15:14 27,6 C 31,9 C 10,8 UV-I 4,7 C 49 % 37 % 100 % 1019,1 hPa 0,0 l/m 4,4 km/h (1 Bft) 2 min 3,9 km/h (1 Bft)
01.07.2010 15:16 27,6 C 31,9 C 10,8 UV-I 4,9 C 49 % 35 % 100 % 1019,1 hPa 0,0 l/m 4,8 km/h (1 Bft) 2 min 13,2 km/h (3 Bft)
01.07.2010 15:18 27,6 C 31,9 C 10,8 UV-I 4,8 C 49 % 35 % 100 % 1019,1 hPa 0,0 l/m 6,0 km/h (2 Bft) 2 min 7,1 km/h (2 Bft)
01.07.2010 15:20 27,7 C 31,7 C 10,8 UV-I 4,9 C 49 % 35 % 100 % 1019,1 hPa 0,0 l/m 5,6 km/h (1 Bft) 2 min 3,9 km/h (1 Bft)
01.07.2010 15:22 27,7 C 31,7 C 9,7 UV-I 4,8 C 49 % 36 % 100 % 1019,1 hPa 0,0 l/m 6,0 km/h (2 Bft) 2 min 4,2 km/h (1 Bft)
01.07.2010 15:24 27,8 C 31,6 C 9,7 UV-I 4,6 C 49 % 35 % 100 % 1019,1 hPa 0,0 l/m 6,4 km/h (2 Bft) 2 min 7,4 km/h (2 Bft)
01.07.2010 15:26 27,8 C 31,6 C 9,7 UV-I 4,5 C 49 % 36 % 100 % 1019,1 hPa 0,0 l/m 6,8 km/h (2 Bft) 2 min 10,6 km/h (2 Bft)
01.07.2010 15:28 27,8 C 31,7 C 9,3 UV-I 4,1 C 49 % 36 % 100 % 1019,1 hPa 0,0 l/m 6,0 km/h (2 Bft) 2 min 11,6 km/h (2 Bft)
01.07.2010 15:30 27,8 C 31,7 C 9,3 UV-I 4,1 C 49 % 36 % 100 % 1019,8 hPa 0,0 l/m 6,0 km/h (2 Bft) 2 min 11,6 km/h (2 Bft)
01.07.2010 15:32 27,9 C 31,6 C 9,5 UV-I 3,8 C 48 % 36 % 100 % 1019,8 hPa 0,0 l/m 6,4 km/h (2 Bft) 2 min 4,8 km/h (1 Bft)
01.07.2010 15:34 27,9 C 31,6 C 9,5 UV-I 3,9 C 48 % 35 % 100 % 1019,8 hPa 0,0 l/m 6,4 km/h (2 Bft) 2 min 6,8 km/h (2 Bft)
01.07.2010 15:36 28,0 C 31,7 C 9,5 UV-I 3,8 C 48 % 35 % 100 % 1019,8 hPa 0,0 l/m 5,6 km/h (1 Bft) 2 min 4,8 km/h (1 Bft)
01.07.2010 15:38 28,0 C 31,6 C 9,2 UV-I 3,9 C 48 % 35 % 100 % 1019,8 hPa 0,0 l/m 4,0 km/h (1 Bft) 2 min 0,0 km/h (0 Bft)
01.07.2010 15:40 28,0 C 31,6 C 9,2 UV-I 3,8 C 48 % 36 % 100 % 1019,8 hPa 0,0 l/m 3,2 km/h (1 Bft) 2 min 0,0 km/h (0 Bft)
01.07.2010 15:42 28,0 C 31,9 C 10,2 UV-I 3,8 C 48 % 36 % 100 % 1019,8 hPa 0,0 l/m 2,8 km/h (1 Bft) 2 min 4,5 km/h (1 Bft)
01.07.2010 15:44 28,1 C 31,9 C 10,2 UV-I 4,2 C 48 % 37 % 100 % 1019,8 hPa 0,0 l/m 2,4 km/h (1 Bft) 2 min 5,8 km/h (2 Bft)
01.07.2010 15:46 28,1 C 32,1 C 10,2 UV-I 4,3 C 48 % 36 % 100 % 1019,8 hPa 0,0 l/m 2,4 km/h (1 Bft) 2 min 5,5 km/h (1 Bft)
01.07.2010 15:48 28,2 C 32,1 C 10,8 UV-I 4,4 C 48 % 36 % 100 % 1019,8 hPa 0,0 l/m 3,2 km/h (1 Bft) 2 min 6,4 km/h (2 Bft)
01.07.2010 15:50 28,2 C 32,1 C 10,8 UV-I 4,4 C 48 % 36 % 100 % 1020,2 hPa 0,0 l/m 3,2 km/h (1 Bft) 2 min 6,4 km/h (2 Bft)
01.07.2010 15:54 28,4 C 32,3 C 11,4 UV-I 4,6 C 47 % 34 % 100 % 1020,2 hPa 0,0 l/m 6,0 km/h (2 Bft) 2 min 6,1 km/h (2 Bft)
01.07.2010 15:56 28,4 C 32,3 C 11,4 UV-I 4,6 C 47 % 35 % 100 % 1020,2 hPa 0,0 l/m 6,0 km/h (2 Bft) 2 min 0,0 km/h (0 Bft)
01.07.2010 15:58 28,4 C 32,2 C 10,2 UV-I 4,7 C 47 % 35 % 100 % 1020,2 hPa 0,0 l/m 5,6 km/h (1 Bft) 2 min 6,8 km/h (2 Bft)
01.07.2010 16:00 28,5 C 32,2 C 10,2 UV-I 4,5 C 47 % 35 % 100 % 1020,2 hPa 0,0 l/m 5,6 km/h (1 Bft) 2 min 9,7 km/h (2 Bft)
01.07.2010 16:02 28,5 C 32,1 C 10,4 UV-I 4,4 C 47 % 34 % 100 % 1020,2 hPa 0,0 l/m 6,0 km/h (2 Bft) 2 min 5,5 km/h (1 Bft)
01.07.2010 16:04 28,5 C 32,1 C 10,4 UV-I 4,4 C 47 % 35 % 100 % 1020,2 hPa 0,0 l/m 5,2 km/h (1 Bft) 2 min 6,8 km/h (2 Bft)
01.07.2010 16:06 28,6 C 32,2 C 10,4 UV-I 4,3 C 47 % 35 % 100 % 1020,2 hPa 0,0 l/m 4,8 km/h (1 Bft) 2 min 0,0 km/h (0 Bft)
01.07.2010 16:08 28,6 C 32,3 C 10,7 UV-I 4,4 C 47 % 34 % 100 % 1020,2 hPa 0,0 l/m 5,6 km/h (1 Bft) 2 min 10,3 km/h (2 Bft)
01.07.2010 16:10 28,6 C 32,3 C 10,7 UV-I 4,4 C 47 % 34 % 100 % 1019,9 hPa 0,0 l/m 5,6 km/h (1 Bft) 2 min 10,3 km/h (2 Bft)
01.07.2010 16:12 28,7 C 32,4 C 9,4 UV-I 4,4 C 46 % 34 % 100 % 1019,9 hPa 0,0 l/m 4,8 km/h (1 Bft) 2 min 6,8 km/h (2 Bft)
01.07.2010 16:14 28,7 C 32,3 C 9,4 UV-I 4,4 C 46 % 35 % 100 % 1019,9 hPa 0,0 l/m 4,8 km/h (1 Bft) 2 min 7,1 km/h (2 Bft)
01.07.2010 16:16 28,7 C 32,3 C 9,4 UV-I 4,2 C 46 % 35 % 100 % 1019,9 hPa 0,0 l/m 5,6 km/h (1 Bft) 2 min 15,1 km/h (3 Bft)
01.07.2010 16:18 28,8 C 32,2 C 8,6 UV-I 4,0 C 46 % 35 % 100 % 1019,9 hPa 0,0 l/m 6,4 km/h (2 Bft) 2 min 7,4 km/h (2 Bft)
01.07.2010 16:20 28,8 C 32,1 C 8,6 UV-I 3,8 C 46 % 34 % 100 % 1019,9 hPa 0,0 l/m 5,6 km/h (1 Bft) 2 min 3,5 km/h (1 Bft)
01.07.2010 16:24 28,8 C 32,0 C 8,3 UV-I 3,7 C 46 % 35 % 100 % 1019,9 hPa 0,0 l/m 4,4 km/h (1 Bft) 2 min 3,9 km/h (1 Bft)
01.07.2010 16:26 28,8 C 32,0 C 8,3 UV-I 3,4 C 46 % 35 % 97 % 1019,9 hPa 0,0 l/m 4,0 km/h (1 Bft) 2 min 5,1 km/h (1 Bft)
01.07.2010 16:28 28,8 C 32,0 C 8,0 UV-I 3,2 C 46 % 35 % 91 % 1019,9 hPa 0,0 l/m 2,4 km/h (1 Bft) 2 min 0,0 km/h (0 Bft)
01.07.2010 16:30 28,8 C 32,0 C 8,0 UV-I 3,2 C 46 % 35 % 91 % 1019,6 hPa 0,0 l/m 2,4 km/h (1 Bft) 2 min 0,0 km/h (0 Bft)
01.07.2010 16:32 28,8 C 32,1 C 9,2 UV-I 3,2 C 46 % 35 % 91 % 1019,6 hPa 0,0 l/m 3,6 km/h (1 Bft) 2 min 3,2 km/h (1 Bft)
01.07.2010 16:34 28,9 C 32,0 C 9,2 UV-I 3,4 C 46 % 36 % 97 % 1019,6 hPa 0,0 l/m 3,6 km/h (1 Bft) 2 min 0,0 km/h (0 Bft)
01.07.2010 16:36 28,9 C 32,1 C 9,2 UV-I 3,6 C 46 % 36 % 100 % 1019,6 hPa 0,0 l/m 3,2 km/h (1 Bft) 2 min 0,0 km/h (0 Bft)
01.07.2010 16:40 28,9 C 32,1 C 8,2 UV-I 3,3 C 46 % 36 % 94 % 1019,6 hPa 0,0 l/m 4,0 km/h (1 Bft) 2 min 8,4 km/h (2 Bft)
01.07.2010 16:42 28,9 C 32,0 C 7,0 UV-I 3,1 C 46 % 36 % 89 % 1019,6 hPa 0,0 l/m 4,0 km/h (1 Bft) 2 min 3,9 km/h (1 Bft)
01.07.2010 16:44 28,9 C 31,9 C 7,0 UV-I 2,9 C 46 % 35 % 83 % 1019,6 hPa 0,0 l/m 4,0 km/h (1 Bft) 2 min 6,1 km/h (2 Bft)
01.07.2010 16:46 28,9 C 31,9 C 7,0 UV-I 2,6 C 46 % 35 % 74 % 1019,6 hPa 0,0 l/m 4,4 km/h (1 Bft) 0 min 3,2 km/h (1 Bft)
01.07.2010 16:48 28,8 C 31,9 C 7,3 UV-I 2,5 C 46 % 35 % 71 % 1019,6 hPa 0,0 l/m 4,4 km/h (1 Bft) 0 min 8,4 km/h (2 Bft)
01.07.2010 16:50 28,8 C 31,9 C 7,3 UV-I 2,5 C 46 % 35 % 71 % 1019,6 hPa 0,0 l/m 4,4 km/h (1 Bft) 0 min 8,4 km/h (2 Bft)
01.07.2010 16:52 28,9 C 31,8 C 7,7 UV-I 2,8 C 46 % 35 % 80 % 1019,6 hPa 0,0 l/m 3,2 km/h (1 Bft) 0 min 0,0 km/h (0 Bft)
01.07.2010 16:56 28,9 C 31,8 C 7,7 UV-I 2,9 C 46 % 36 % 83 % 1019,6 hPa 0,0 l/m 3,2 km/h (1 Bft) 2 min 7,1 km/h (2 Bft)
01.07.2010 17:02 28,8 C 31,7 C 6,6 UV-I 2,4 C 46 % 36 % 69 % 1019,6 hPa 0,0 l/m 2,8 km/h (1 Bft) 0 min 6,4 km/h (2 Bft)
01.07.2010 17:04 28,8 C 31,7 C 6,6 UV-I 2,4 C 46 % 36 % 69 % 1019,6 hPa 0,0 l/m 2,8 km/h (1 Bft) 0 min 0,0 km/h (0 Bft)
01.07.2010 17:06 28,8 C 31,7 C 6,6 UV-I 2,5 C 46 % 35 % 71 % 1019,6 hPa 0,0 l/m 2,8 km/h (1 Bft) 0 min 6,1 km/h (2 Bft)
01.07.2010 17:08 28,8 C 31,7 C 7,9 UV-I 2,6 C 46 % 35 % 74 % 1019,6 hPa 0,0 l/m 3,2 km/h (1 Bft) 0 min 6,1 km/h (2 Bft)
01.07.2010 17:10 28,8 C 31,7 C 7,9 UV-I 2,6 C 46 % 35 % 74 % 1019,2 hPa 0,0 l/m 3,2 km/h (1 Bft) 0 min 6,1 km/h (2 Bft)
01.07.2010 17:14 28,8 C 31,8 C 5,5 UV-I 2,4 C 46 % 36 % 69 % 1019,2 hPa 0,0 l/m 2,8 km/h (1 Bft) 0 min 0,0 km/h (0 Bft)
01.07.2010 17:16 28,8 C 31,7 C 5,5 UV-I 2,4 C 46 % 36 % 69 % 1019,2 hPa 0,0 l/m 2,8 km/h (1 Bft) 0 min 0,0 km/h (0 Bft)
01.07.2010 17:18 28,8 C 31,7 C 6,0 UV-I 2,3 C 46 % 36 % 66 % 1019,2 hPa 0,0 l/m 2,4 km/h (1 Bft) 0 min 4,5 km/h (1 Bft)
01.07.2010 17:20 28,8 C 31,6 C 6,0 UV-I 2,3 C 46 % 37 % 66 % 1019,2 hPa 0,0 l/m 2,8 km/h (1 Bft) 0 min 9,7 km/h (2 Bft)
01.07.2010 17:22 28,8 C 31,6 C 6,3 UV-I 2,2 C 46 % 36 % 63 % 1019,2 hPa 0,0 l/m 3,2 km/h (1 Bft) 0 min 4,8 km/h (1 Bft)
01.07.2010 17:26 28,8 C 31,7 C 6,3 UV-I 2,2 C 46 % 36 % 63 % 1019,2 hPa 0,0 l/m 3,2 km/h (1 Bft) 0 min 3,5 km/h (1 Bft)
01.07.2010 17:28 28,8 C 31,6 C 7,5 UV-I 2,5 C 46 % 36 % 71 % 1019,2 hPa 0,0 l/m 3,6 km/h (1 Bft) 0 min 3,2 km/h (1 Bft)
01.07.2010 17:30 28,8 C 31,6 C 7,5 UV-I 2,5 C 46 % 36 % 71 % 1018,8 hPa 0,0 l/m 3,6 km/h (1 Bft) 0 min 3,2 km/h (1 Bft)
01.07.2010 17:32 28,8 C 31,6 C 6,5 UV-I 2,2 C 46 % 36 % 63 % 1018,8 hPa 0,0 l/m 3,6 km/h (1 Bft) 0 min 6,4 km/h (2 Bft)
01.07.2010 17:34 28,8 C 31,6 C 6,5 UV-I 2,1 C 46 % 36 % 60 % 1018,8 hPa 0,0 l/m 3,2 km/h (1 Bft) 0 min 0,0 km/h (0 Bft)
01.07.2010 17:36 28,8 C 31,6 C 6,5 UV-I 2,6 C 46 % 36 % 74 % 1018,8 hPa 0,0 l/m 2,8 km/h (1 Bft) 0 min 3,5 km/h (1 Bft)
01.07.2010 17:38 28,8 C 31,7 C 9,3 UV-I 2,8 C 46 % 36 % 80 % 1018,8 hPa 0,0 l/m 3,2 km/h (1 Bft) 0 min 5,1 km/h (1 Bft)
01.07.2010 17:40 28,8 C 31,8 C 9,3 UV-I 3,0 C 46 % 36 % 86 % 1018,8 hPa 0,0 l/m 2,8 km/h (1 Bft) 2 min 0,0 km/h (0 Bft)
01.07.2010 17:42 28,8 C 31,8 C 7,6 UV-I 3,3 C 46 % 36 % 94 % 1018,8 hPa 0,0 l/m 2,8 km/h (1 Bft) 2 min 5,8 km/h (2 Bft)
01.07.2010 17:44 28,8 C 31,8 C 7,6 UV-I 3,2 C 46 % 35 % 91 % 1018,8 hPa 0,0 l/m 2,4 km/h (1 Bft) 2 min 4,8 km/h (1 Bft)
01.07.2010 17:46 28,8 C 31,7 C 7,6 UV-I 3,0 C 46 % 35 % 86 % 1018,8 hPa 0,0 l/m 3,6 km/h (1 Bft) 2 min 13,5 km/h (3 Bft)
01.07.2010 17:48 28,8 C 31,6 C 5,0 UV-I 2,6 C 46 % 36 % 74 % 1018,8 hPa 0,0 l/m 3,2 km/h (1 Bft) 0 min 3,9 km/h (1 Bft)
01.07.2010 17:50 28,8 C 31,6 C 5,0 UV-I 2,6 C 46 % 36 % 74 % 1018,4 hPa 0,0 l/m 3,2 km/h (1 Bft) 0 min 3,9 km/h (1 Bft)
01.07.2010 17:52 28,8 C 31,4 C 5,3 UV-I 2,0 C 46 % 36 % 57 % 1018,4 hPa 0,0 l/m 3,2 km/h (1 Bft) 0 min 6,1 km/h (2 Bft)
01.07.2010 17:56 28,8 C 31,4 C 5,3 UV-I 1,7 C 46 % 37 % 49 % 1018,4 hPa 0,0 l/m 2,0 km/h (1 Bft) 0 min 3,2 km/h (1 Bft)
01.07.2010 18:00 28,7 C 31,3 C 5,2 UV-I 1,8 C 46 % 37 % 51 % 1018,4 hPa 0,0 l/m 0,8 km/h (0 Bft) 0 min 0,0 km/h (0 Bft)
01.07.2010 18:02 28,7 C 31,3 C 3,9 UV-I 1,6 C 46 % 37 % 46 % 1018,4 hPa 0,0 l/m 1,6 km/h (1 Bft) 0 min 0,0 km/h (0 Bft)
01.07.2010 18:04 28,7 C 31,2 C 3,9 UV-I 1,4 C 46 % 37 % 40 % 1018,4 hPa 0,0 l/m 1,6 km/h (1 Bft) 0 min 5,8 km/h (2 Bft)
01.07.2010 18:06 28,7 C 31,1 C 3,9 UV-I 1,3 C 46 % 37 % 37 % 1018,4 hPa 0,0 l/m 1,6 km/h (1 Bft) 0 min 3,5 km/h (1 Bft)
01.07.2010 18:08 28,7 C 31,1 C 3,0 UV-I 1,0 C 46 % 37 % 29 % 1018,4 hPa 0,0 l/m 2,0 km/h (1 Bft) 0 min 0,0 km/h (0 Bft)
01.07.2010 18:12 28,6 C 30,9 C 2,3 UV-I 0,7 C 46 % 37 % 20 % 1018,0 hPa 0,0 l/m 2,4 km/h (1 Bft) 0 min 0,0 km/h (0 Bft)
01.07.2010 18:14 28,6 C 30,8 C 2,3 UV-I 0,6 C 46 % 37 % 17 % 1018,0 hPa 0,0 l/m 2,4 km/h (1 Bft) 0 min 0,0 km/h (0 Bft)
01.07.2010 18:16 28,6 C 30,8 C 2,3 UV-I 0,4 C 46 % 38 % 11 % 1018,0 hPa 0,0 l/m 2,0 km/h (1 Bft) 0 min 0,0 km/h (0 Bft)
01.07.2010 18:18 28,6 C 30,7 C 2,3 UV-I 0,3 C 46 % 37 % 9 % 1018,0 hPa 0,0 l/m 1,6 km/h (1 Bft) 0 min 4,5 km/h (1 Bft)
01.07.2010 18:20 28,5 C 30,6 C 2,3 UV-I 0,3 C 46 % 37 % 9 % 1018,0 hPa 0,0 l/m 1,6 km/h (1 Bft) 0 min 0,0 km/h (0 Bft)
01.07.2010 18:22 28,5 C 30,6 C 2,5 UV-I 0,2 C 46 % 38 % 6 % 1018,0 hPa 0,0 l/m 1,2 km/h (1 Bft) 0 min 0,0 km/h (0 Bft)
01.07.2010 18:26 28,5 C 30,6 C 2,5 UV-I 0,3 C 46 % 38 % 9 % 1018,0 hPa 0,0 l/m 0,8 km/h (0 Bft) 0 min 0,0 km/h (0 Bft)
01.07.2010 18:28 28,4 C 30,7 C 2,9 UV-I 0,2 C 46 % 37 % 6 % 1018,0 hPa 0,0 l/m 0,8 km/h (0 Bft) 0 min 0,0 km/h (0 Bft)
01.07.2010 18:30 28,4 C 30,7 C 2,9 UV-I 0,2 C 46 % 37 % 6 % 1017,6 hPa 0,0 l/m 0,8 km/h (0 Bft) 0 min 0,0 km/h (0 Bft)
01.07.2010 18:32 28,4 C 30,7 C 3,6 UV-I 0,6 C 47 % 38 % 17 % 1017,6 hPa 0,0 l/m 0,4 km/h (0 Bft) 0 min 3,5 km/h (1 Bft)
01.07.2010 18:34 28,4 C 30,7 C 3,6 UV-I 0,8 C 47 % 38 % 23 % 1017,6 hPa 0,0 l/m 0,8 km/h (0 Bft) 0 min 0,0 km/h (0 Bft)
01.07.2010 18:36 28,4 C 30,7 C 3,6 UV-I 0,9 C 47 % 38 % 26 % 1017,6 hPa 0,0 l/m 1,6 km/h (1 Bft) 0 min 0,0 km/h (0 Bft)
01.07.2010 18:38 28,4 C 30,8 C 3,5 UV-I 0,9 C 47 % 38 % 26 % 1017,6 hPa 0,0 l/m 1,6 km/h (1 Bft) 0 min 0,0 km/h (0 Bft)
01.07.2010 18:40 28,4 C 30,9 C 3,5 UV-I 0,8 C 47 % 38 % 23 % 1017,6 hPa 0,0 l/m 1,6 km/h (1 Bft) 0 min 0,0 km/h (0 Bft)
01.07.2010 18:42 28,2 C 30,8 C 3,4 UV-I 0,9 C 47 % 38 % 26 % 1017,6 hPa 0,0 l/m 1,6 km/h (1 Bft) 0 min 0,0 km/h (0 Bft)
01.07.2010 18:44 28,2 C 30,9 C 3,4 UV-I 0,8 C 47 % 38 % 23 % 1017,6 hPa 0,0 l/m 1,6 km/h (1 Bft) 0 min 0,0 km/h (0 Bft)
01.07.2010 18:46 28,2 C 30,8 C 3,4 UV-I 0,9 C 47 % 38 % 26 % 1017,6 hPa 0,0 l/m 0,8 km/h (0 Bft) 0 min 0,0 km/h (0 Bft)
01.07.2010 18:48 28,2 C 30,9 C 3,3 UV-I 0,8 C 47 % 38 % 23 % 1017,6 hPa 0,0 l/m 0,8 km/h (0 Bft) 0 min 0,0 km/h (0 Bft)
01.07.2010 18:50 28,2 C 30,9 C 3,3 UV-I 0,8 C 47 % 38 % 23 % 1017,5 hPa 0,0 l/m 0,8 km/h (0 Bft) 0 min 0,0 km/h (0 Bft)
01.07.2010 18:52 28,3 C 30,8 C 3,2 UV-I 1,0 C 47 % 38 % 29 % 1017,5 hPa 0,0 l/m 0,4 km/h (0 Bft) 0 min 0,0 km/h (0 Bft)
01.07.2010 18:54 28,2 C 30,9 C 3,2 UV-I 0,8 C 47 % 38 % 23 % 1017,5 hPa 0,0 l/m 0,4 km/h (0 Bft) 0 min 3,2 km/h (1 Bft)
01.07.2010 18:56 28,2 C 30,9 C 3,2 UV-I 0,8 C 47 % 38 % 23 % 1017,5 hPa 0,0 l/m 0,4 km/h (0 Bft) 0 min 3,2 km/h (1 Bft)
01.07.2010 18:58 28,2 C 30,9 C 3,0 UV-I 0,8 C 47 % 38 % 23 % 1017,5 hPa 0,0 l/m 0,8 km/h (0 Bft) 0 min 3,2 km/h (1 Bft)
01.07.2010 19:00 28,2 C 30,8 C 3,0 UV-I 0,9 C 47 % 38 % 26 % 1017,5 hPa 0,0 l/m 0,8 km/h (0 Bft) 0 min 3,5 km/h (1 Bft)
01.07.2010 19:02 28,2 C 30,8 C 3,0 UV-I 0,9 C 47 % 38 % 26 % 1017,5 hPa 0,0 l/m 0,8 km/h (0 Bft) 0 min 0,0 km/h (0 Bft)
01.07.2010 19:04 28,2 C 30,8 C 3,0 UV-I 0,9 C 47 % 38 % 26 % 1017,5 hPa 0,0 l/m 0,8 km/h (0 Bft) 0 min 3,5 km/h (1 Bft)
01.07.2010 19:06 28,2 C 30,9 C 3,0 UV-I 0,8 C 47 % 38 % 23 % 1017,5 hPa 0,0 l/m 0,8 km/h (0 Bft) 0 min 0,0 km/h (0 Bft)
01.07.2010 19:08 28,2 C 30,8 C 3,0 UV-I 0,9 C 47 % 38 % 26 % 1017,5 hPa 0,0 l/m 1,2 km/h (1 Bft) 0 min 0,0 km/h (0 Bft)
01.07.2010 19:12 28,1 C 30,9 C 3,2 UV-I 0,9 C 47 % 38 % 26 % 1017,4 hPa 0,0 l/m 0,8 km/h (0 Bft) 0 min 0,0 km/h (0 Bft)
01.07.2010 19:18 28,1 C 30,8 C 3,0 UV-I 0,9 C 47 % 38 % 26 % 1017,4 hPa 0,0 l/m 1,2 km/h (1 Bft) 0 min 4,8 km/h (1 Bft)
01.07.2010 19:20 28,1 C 30,9 C 3,0 UV-I 0,8 C 47 % 38 % 23 % 1017,4 hPa 0,0 l/m 1,2 km/h (1 Bft) 0 min 0,0 km/h (0 Bft)
01.07.2010 19:22 28,1 C 30,9 C 3,2 UV-I 0,8 C 47 % 38 % 23 % 1017,4 hPa 0,0 l/m 1,2 km/h (1 Bft) 0 min 4,5 km/h (1 Bft)
01.07.2010 19:24 28,1 C 30,9 C 3,2 UV-I 0,7 C 47 % 38 % 20 % 1017,4 hPa 0,0 l/m 1,2 km/h (1 Bft) 0 min 5,1 km/h (1 Bft)
01.07.2010 19:26 28,0 C 30,8 C 3,2 UV-I 0,8 C 47 % 38 % 23 % 1017,4 hPa 0,0 l/m 1,2 km/h (1 Bft) 0 min 3,2 km/h (1 Bft)
01.07.2010 19:28 28,0 C 30,7 C 3,2 UV-I 0,9 C 47 % 38 % 26 % 1017,4 hPa 0,0 l/m 2,0 km/h (1 Bft) 0 min 5,1 km/h (1 Bft)
01.07.2010 19:30 28,0 C 30,7 C 3,2 UV-I 0,9 C 47 % 38 % 26 % 1016,9 hPa 0,0 l/m 2,0 km/h (1 Bft) 0 min 5,1 km/h (1 Bft)
01.07.2010 19:32 28,0 C 30,7 C 2,5 UV-I 0,7 C 47 % 38 % 20 % 1016,9 hPa 0,0 l/m 1,6 km/h (1 Bft) 0 min 0,0 km/h (0 Bft)
01.07.2010 19:34 28,0 C 30,7 C 2,5 UV-I 0,6 C 47 % 38 % 17 % 1016,9 hPa 0,0 l/m 1,6 km/h (1 Bft) 0 min 0,0 km/h (0 Bft)
01.07.2010 19:36 28,0 C 30,7 C 2,5 UV-I 0,5 C 47 % 38 % 14 % 1016,9 hPa 0,0 l/m 1,6 km/h (1 Bft) 0 min 3,5 km/h (1 Bft)
01.07.2010 19:38 28,0 C 30,6 C 2,5 UV-I 0,5 C 48 % 37 % 14 % 1016,9 hPa 0,0 l/m 1,2 km/h (1 Bft) 0 min 0,0 km/h (0 Bft)
01.07.2010 19:44 28,0 C 30,7 C 2,2 UV-I 0,0 C 48 % 38 % 0 % 1016,9 hPa 0,0 l/m 2,0 km/h (1 Bft) 0 min 5,5 km/h (1 Bft)
01.07.2010 19:50 27,9 C 30,5 C 1,7 UV-I 0,0 C 48 % 38 % 0 % 1017,3 hPa 0,0 l/m 2,0 km/h (1 Bft) 0 min 0,0 km/h (0 Bft)
01.07.2010 19:54 27,9 C 30,4 C 1,7 UV-I 0,0 C 48 % 39 % 0 % 1017,3 hPa 0,0 l/m 0,8 km/h (0 Bft) 0 min 0,0 km/h (0 Bft)
01.07.2010 19:58 27,9 C 30,3 C 1,2 UV-I 0,0 C 49 % 41 % 0 % 1017,3 hPa 0,0 l/m 0,0 km/h (0 Bft) 0 min 0,0 km/h (0 Bft)
01.07.2010 20:03 27,8 C 30,1 C 1,1 UV-I 0,0 C 49 % 41 % 0 % 1017,3 hPa 0,0 l/m 0,0 km/h (0 Bft) 0 min 0,0 km/h (0 Bft)
01.07.2010 20:06 27,8 C 30,1 C 1,1 UV-I 0,0 C 49 % 41 % 0 % 1017,3 hPa 0,0 l/m 0,0 km/h (0 Bft) 0 min 0,0 km/h (0 Bft)
01.07.2010 20:08 27,8 C 30,0 C 0,9 UV-I 0,0 C 49 % 41 % 0 % 1017,3 hPa 0,0 l/m 0,0 km/h (0 Bft) 0 min 0,0 km/h (0 Bft)
01.07.2010 20:10 27,8 C 30,0 C 0,9 UV-I 0,0 C 49 % 41 % 0 % 1017,0 hPa 0,0 l/m 0,0 km/h (0 Bft) 0 min 0,0 km/h (0 Bft)
01.07.2010 20:12 27,8 C 30,1 C 0,9 UV-I 0,0 C 49 % 41 % 0 % 1017,0 hPa 0,0 l/m 0,0 km/h (0 Bft) 0 min 0,0 km/h (0 Bft)
01.07.2010 20:14 27,8 C 30,0 C 0,9 UV-I 0,0 C 49 % 42 % 0 % 1017,0 hPa 0,0 l/m 0,0 km/h (0 Bft) 0 min 0,0 km/h (0 Bft)
01.07.2010 20:16 27,8 C 29,9 C 0,9 UV-I 0,0 C 49 % 41 % 0 % 1017,0 hPa 0,0 l/m 0,0 km/h (0 Bft) 0 min 0,0 km/h (0 Bft)
01.07.2010 20:18 27,8 C 29,8 C 0,7 UV-I 0,0 C 49 % 42 % 0 % 1017,0 hPa 0,0 l/m 0,0 km/h (0 Bft) 0 min 0,0 km/h (0 Bft)
01.07.2010 20:20 27,8 C 29,9 C 0,7 UV-I 0,0 C 49 % 42 % 0 % 1017,0 hPa 0,0 l/m 0,0 km/h (0 Bft) 0 min 0,0 km/h (0 Bft)
01.07.2010 20:22 27,8 C 29,9 C 0,5 UV-I 0,0 C 49 % 42 % 0 % 1017,0 hPa 0,0 l/m 0,0 km/h (0 Bft) 0 min 0,0 km/h (0 Bft)
01.07.2010 20:24 27,8 C 29,8 C 0,5 UV-I 0,0 C 49 % 42 % 0 % 1017,0 hPa 0,0 l/m 0,0 km/h (0 Bft) 0 min 0,0 km/h (0 Bft)
01.07.2010 20:26 27,7 C 29,8 C 0,5 UV-I 0,0 C 49 % 42 % 0 % 1017,0 hPa 0,0 l/m 0,0 km/h (0 Bft) 0 min 0,0 km/h (0 Bft)
01.07.2010 20:30 27,8 C 29,7 C 0,7 UV-I 0,0 C 50 % 43 % 0 % 1017,1 hPa 0,0 l/m 0,0 km/h (0 Bft) 0 min 0,0 km/h (0 Bft)
01.07.2010 20:32 27,7 C 29,7 C 0,9 UV-I 0,0 C 50 % 44 % 0 % 1017,1 hPa 0,0 l/m 0,0 km/h (0 Bft) 0 min 0,0 km/h (0 Bft)
01.07.2010 20:34 27,7 C 29,6 C 0,9 UV-I 0,0 C 50 % 44 % 0 % 1017,1 hPa 0,0 l/m 0,4 km/h (0 Bft) 0 min 3,2 km/h (1 Bft)
01.07.2010 20:36 27,7 C 29,6 C 0,9 UV-I 0,0 C 50 % 44 % 0 % 1017,1 hPa 0,0 l/m 0,4 km/h (0 Bft) 0 min 0,0 km/h (0 Bft)
01.07.2010 20:38 27,7 C 29,5 C 0,5 UV-I 0,0 C 50 % 44 % 0 % 1017,1 hPa 0,0 l/m 0,4 km/h (0 Bft) 0 min 0,0 km/h (0 Bft)
01.07.2010 20:40 27,7 C 29,5 C 0,5 UV-I 0,0 C 50 % 44 % 0 % 1017,1 hPa 0,0 l/m 0,4 km/h (0 Bft) 0 min 0,0 km/h (0 Bft)
01.07.2010 20:44 27,7 C 29,4 C 0,5 UV-I 0,0 C 50 % 44 % 0 % 1017,1 hPa 0,0 l/m 0,4 km/h (0 Bft) 0 min 0,0 km/h (0 Bft)
01.07.2010 20:46 27,7 C 29,4 C 0,5 UV-I 0,0 C 50 % 44 % 0 % 1017,1 hPa 0,0 l/m 0,0 km/h (0 Bft) 0 min 0,0 km/h (0 Bft)
01.07.2010 20:48 27,7 C 29,3 C 0,4 UV-I 0,0 C 50 % 44 % 0 % 1017,1 hPa 0,0 l/m 0,0 km/h (0 Bft) 0 min 0,0 km/h (0 Bft)
01.07.2010 20:50 27,7 C 29,3 C 0,4 UV-I 0,0 C 50 % 44 % 0 % 1017,0 hPa 0,0 l/m 0,0 km/h (0 Bft) 0 min 0,0 km/h (0 Bft)
01.07.2010 20:52 27,7 C 29,3 C 0,3 UV-I 0,0 C 50 % 45 % 0 % 1017,0 hPa 0,0 l/m 0,0 km/h (0 Bft) 0 min 0,0 km/h (0 Bft)
01.07.2010 20:54 27,6 C 29,3 C 0,3 UV-I 0,0 C 50 % 45 % 0 % 1017,0 hPa 0,0 l/m 0,0 km/h (0 Bft) 0 min 0,0 km/h (0 Bft)
01.07.2010 20:56 27,6 C 29,2 C 0,3 UV-I 0,0 C 50 % 45 % 0 % 1017,0 hPa 0,0 l/m 0,0 km/h (0 Bft) 0 min 0,0 km/h (0 Bft)
01.07.2010 20:58 27,7 C 29,3 C 0,4 UV-I 0,0 C 50 % 45 % 0 % 1017,0 hPa 0,0 l/m 0,0 km/h (0 Bft) 0 min 0,0 km/h (0 Bft)
01.07.2010 21:00 27,6 C 29,1 C 0,4 UV-I 0,0 C 50 % 46 % 0 % 1017,0 hPa 0,0 l/m 0,0 km/h (0 Bft) 0 min 0,0 km/h (0 Bft)
01.07.2010 21:02 27,6 C 29,1 C 0,1 UV-I 0,0 C 50 % 46 % 0 % 1017,0 hPa 0,0 l/m 0,0 km/h (0 Bft) 0 min 0,0 km/h (0 Bft)
01.07.2010 21:04 27,6 C 29,2 C 0,1 UV-I 0,0 C 50 % 46 % 0 % 1017,0 hPa 0,0 l/m 0,0 km/h (0 Bft) 0 min 0,0 km/h (0 Bft)
01.07.2010 21:06 27,6 C 29,1 C 0,1 UV-I 0,0 C 50 % 45 % 0 % 1017,0 hPa 0,0 l/m 0,4 km/h (0 Bft) 0 min 3,2 km/h (1 Bft)
01.07.2010 21:08 27,6 C 29,0 C 0,1 UV-I 0,0 C 50 % 45 % 0 % 1017,0 hPa 0,0 l/m 0,4 km/h (0 Bft) 0 min 0,0 km/h (0 Bft)
01.07.2010 21:10 27,6 C 29,0 C 0,1 UV-I 0,0 C 50 % 45 % 0 % 1016,9 hPa 0,0 l/m 0,4 km/h (0 Bft) 0 min 0,0 km/h (0 Bft)
01.07.2010 21:12 27,6 C 28,9 C 0,0 UV-I 0,0 C 50 % 45 % 0 % 1016,9 hPa 0,0 l/m 0,8 km/h (0 Bft) 0 min 0,0 km/h (0 Bft)
01.07.2010 21:14 27,6 C 28,8 C 0,0 UV-I 0,0 C 50 % 45 % 0 % 1016,9 hPa 0,0 l/m 1,2 km/h (1 Bft) 0 min 0,0 km/h (0 Bft)
01.07.2010 21:18 27,6 C 28,7 C 0,0 UV-I 0,0 C 50 % 46 % 0 % 1016,9 hPa 0,0 l/m 0,8 km/h (0 Bft) 0 min 0,0 km/h (0 Bft)
01.07.2010 21:20 27,6 C 28,7 C 0,0 UV-I 0,0 C 50 % 46 % 0 % 1016,9 hPa 0,0 l/m 0,4 km/h (0 Bft) 0 min 0,0 km/h (0 Bft)
01.07.2010 21:22 27,6 C 28,6 C 0,0 UV-I 0,0 C 50 % 46 % 0 % 1016,9 hPa 0,0 l/m 0,0 km/h (0 Bft) 0 min 0,0 km/h (0 Bft)
01.07.2010 21:24 27,6 C 28,6 C 0,0 UV-I 0,0 C 50 % 46 % 0 % 1016,9 hPa 0,0 l/m 0,0 km/h (0 Bft) 0 min 0,0 km/h (0 Bft)
01.07.2010 21:26 27,5 C 28,5 C 0,0 UV-I 0,0 C 51 % 46 % 0 % 1016,9 hPa 0,0 l/m 0,0 km/h (0 Bft) 0 min 0,0 km/h (0 Bft)
01.07.2010 21:28 27,5 C 28,5 C 0,0 UV-I 0,0 C 51 % 47 % 0 % 1016,9 hPa 0,0 l/m 0,0 km/h (0 Bft) 0 min 0,0 km/h (0 Bft)
01.07.2010 21:30 27,5 C 28,5 C 0,0 UV-I 0,0 C 51 % 47 % 0 % 1016,8 hPa 0,0 l/m 0,0 km/h (0 Bft) 0 min 0,0 km/h (0 Bft)
01.07.2010 21:32 27,5 C 28,5 C 0,0 UV-I 0,0 C 51 % 48 % 0 % 1016,8 hPa 0,0 l/m 0,0 km/h (0 Bft) 0 min 0,0 km/h (0 Bft)
01.07.2010 21:34 27,5 C 28,3 C 0,0 UV-I 0,0 C 51 % 49 % 0 % 1016,8 hPa 0,0 l/m 0,0 km/h (0 Bft) 0 min 0,0 km/h (0 Bft)
01.07.2010 21:36 27,5 C 28,3 C 0,0 UV-I 0,0 C 51 % 49 % 0 % 1016,8 hPa 0,0 l/m 0,0 km/h (0 Bft) 0 min 0,0 km/h (0 Bft)
01.07.2010 21:38 27,5 C 28,1 C 0,0 UV-I 0,0 C 51 % 49 % 0 % 1016,8 hPa 0,0 l/m 0,0 km/h (0 Bft) 0 min 0,0 km/h (0 Bft)
01.07.2010 21:40 27,5 C 28,1 C 0,0 UV-I 0,0 C 51 % 49 % 0 % 1016,8 hPa 0,0 l/m 0,0 km/h (0 Bft) 0 min 0,0 km/h (0 Bft)
01.07.2010 21:42 27,4 C 28,1 C 0,0 UV-I 0,0 C 51 % 49 % 0 % 1016,8 hPa 0,0 l/m 0,0 km/h (0 Bft) 0 min 0,0 km/h (0 Bft)
01.07.2010 21:44 27,5 C 28,1 C 0,0 UV-I 0,0 C 51 % 49 % 0 % 1016,8 hPa 0,0 l/m 0,0 km/h (0 Bft) 0 min 0,0 km/h (0 Bft)
01.07.2010 21:46 27,5 C 27,9 C 0,0 UV-I 0,0 C 51 % 49 % 0 % 1016,8 hPa 0,0 l/m 0,0 km/h (0 Bft) 0 min 0,0 km/h (0 Bft)
01.07.2010 21:48 27,4 C 27,9 C 0,0 UV-I 0,0 C 51 % 49 % 0 % 1016,8 hPa 0,0 l/m 0,0 km/h (0 Bft) 0 min 0,0 km/h (0 Bft)
01.07.2010 21:50 27,4 C 27,7 C 0,0 UV-I 0,0 C 51 % 50 % 0 % 1016,9 hPa 0,0 l/m 0,0 km/h (0 Bft) 0 min 0,0 km/h (0 Bft)
01.07.2010 21:52 27,4 C 27,7 C 0,0 UV-I 0,0 C 51 % 50 % 0 % 1016,9 hPa 0,0 l/m 0,0 km/h (0 Bft) 0 min 0,0 km/h (0 Bft)
01.07.2010 21:54 27,4 C 27,6 C 0,0 UV-I 0,0 C 51 % 50 % 0 % 1016,9 hPa 0,0 l/m 0,0 km/h (0 Bft) 0 min 0,0 km/h (0 Bft)
01.07.2010 21:56 27,4 C 27,5 C 0,0 UV-I 0,0 C 51 % 51 % 0 % 1016,9 hPa 0,0 l/m 0,0 km/h (0 Bft) 0 min 0,0 km/h (0 Bft)
01.07.2010 21:58 27,4 C 27,4 C 0,0 UV-I 0,0 C 51 % 51 % 0 % 1016,9 hPa 0,0 l/m 0,0 km/h (0 Bft) 0 min 0,0 km/h (0 Bft)
01.07.2010 22:00 27,4 C 27,3 C 0,0 UV-I 0,0 C 51 % 51 % 0 % 1016,9 hPa 0,0 l/m 0,0 km/h (0 Bft) 0 min 0,0 km/h (0 Bft)
01.07.2010 22:02 27,4 C 27,2 C 0,0 UV-I 0,0 C 51 % 51 % 0 % 1016,9 hPa 0,0 l/m 0,0 km/h (0 Bft) 0 min 0,0 km/h (0 Bft)
01.07.2010 22:04 27,2 C 27,2 C 0,0 UV-I 0,0 C 51 % 51 % 0 % 1016,9 hPa 0,0 l/m 0,0 km/h (0 Bft) 0 min 0,0 km/h (0 Bft)
01.07.2010 22:06 27,2 C 27,1 C 0,0 UV-I 0,0 C 51 % 50 % 0 % 1016,9 hPa 0,0 l/m 0,0 km/h (0 Bft) 0 min 0,0 km/h (0 Bft)
01.07.2010 22:08 27,2 C 27,1 C 0,0 UV-I 0,0 C 51 % 50 % 0 % 1016,9 hPa 0,0 l/m 0,0 km/h (0 Bft) 0 min 3,2 km/h (1 Bft)
01.07.2010 22:10 27,2 C 27,1 C 0,0 UV-I 0,0 C 51 % 50 % 0 % 1016,9 hPa 0,0 l/m 0,0 km/h (0 Bft) 0 min 3,2 km/h (1 Bft)
01.07.2010 22:12 27,2 C 27,0 C 0,0 UV-I 0,0 C 51 % 50 % 0 % 1016,9 hPa 0,0 l/m 0,0 km/h (0 Bft) 0 min 0,0 km/h (0 Bft)
01.07.2010 22:14 27,3 C 26,9 C 0,0 UV-I 0,0 C 51 % 50 % 0 % 1016,9 hPa 0,0 l/m 0,0 km/h (0 Bft) 0 min 0,0 km/h (0 Bft)
01.07.2010 22:16 27,3 C 26,8 C 0,0 UV-I 0,0 C 51 % 50 % 0 % 1016,9 hPa 0,0 l/m 0,0 km/h (0 Bft) 0 min 0,0 km/h (0 Bft)
01.07.2010 22:18 27,2 C 26,8 C 0,0 UV-I 0,0 C 51 % 50 % 0 % 1016,9 hPa 0,0 l/m 0,0 km/h (0 Bft) 0 min 0,0 km/h (0 Bft)
01.07.2010 22:20 27,2 C 26,7 C 0,0 UV-I 0,0 C 51 % 50 % 0 % 1016,9 hPa 0,0 l/m 0,0 km/h (0 Bft) 0 min 0,0 km/h (0 Bft)
01.07.2010 22:22 27,2 C 26,7 C 0,0 UV-I 0,0 C 51 % 50 % 0 % 1016,9 hPa 0,0 l/m 0,4 km/h (0 Bft) 0 min 0,0 km/h (0 Bft)
01.07.2010 22:24 27,2 C 26,6 C 0,0 UV-I 0,0 C 51 % 51 % 0 % 1016,9 hPa 0,0 l/m 0,4 km/h (0 Bft) 0 min 0,0 km/h (0 Bft)
01.07.2010 22:26 27,2 C 26,7 C 0,0 UV-I 0,0 C 51 % 50 % 0 % 1016,9 hPa 0,0 l/m 0,4 km/h (0 Bft) 0 min 0,0 km/h (0 Bft)
01.07.2010 22:28 27,2 C 26,7 C 0,0 UV-I 0,0 C 51 % 51 % 0 % 1016,9 hPa 0,0 l/m 0,4 km/h (0 Bft) 0 min 0,0 km/h (0 Bft)
01.07.2010 22:30 27,2 C 26,7 C 0,0 UV-I 0,0 C 51 % 51 % 0 % 1017,1 hPa 0,0 l/m 0,4 km/h (0 Bft) 0 min 0,0 km/h (0 Bft)
01.07.2010 22:32 27,2 C 26,5 C 0,0 UV-I 0,0 C 51 % 51 % 0 % 1017,1 hPa 0,0 l/m 0,8 km/h (0 Bft) 0 min 0,0 km/h (0 Bft)
01.07.2010 22:34 27,1 C 26,5 C 0,0 UV-I 0,0 C 51 % 51 % 0 % 1017,1 hPa 0,0 l/m 0,4 km/h (0 Bft) 0 min 0,0 km/h (0 Bft)
01.07.2010 22:36 27,2 C 26,4 C 0,0 UV-I 0,0 C 51 % 51 % 0 % 1017,1 hPa 0,0 l/m 0,4 km/h (0 Bft) 0 min 0,0 km/h (0 Bft)
01.07.2010 22:38 27,1 C 26,4 C 0,0 UV-I 0,0 C 51 % 51 % 0 % 1017,1 hPa 0,0 l/m 0,4 km/h (0 Bft) 0 min 0,0 km/h (0 Bft)
01.07.2010 22:40 27,1 C 26,4 C 0,0 UV-I 0,0 C 51 % 51 % 0 % 1017,1 hPa 0,0 l/m 0,4 km/h (0 Bft) 0 min 0,0 km/h (0 Bft)
01.07.2010 22:42 27,1 C 26,3 C 0,0 UV-I 0,0 C 51 % 51 % 0 % 1017,1 hPa 0,0 l/m 0,0 km/h (0 Bft) 0 min 0,0 km/h (0 Bft)
01.07.2010 22:44 27,1 C 26,2 C 0,0 UV-I 0,0 C 52 % 52 % 0 % 1017,1 hPa 0,0 l/m 0,0 km/h (0 Bft) 0 min 0,0 km/h (0 Bft)
01.07.2010 22:46 27,0 C 26,3 C 0,0 UV-I 0,0 C 51 % 52 % 0 % 1017,1 hPa 0,0 l/m 0,0 km/h (0 Bft) 0 min 0,0 km/h (0 Bft)
01.07.2010 22:48 27,1 C 26,2 C 0,0 UV-I 0,0 C 52 % 52 % 0 % 1017,1 hPa 0,0 l/m 0,0 km/h (0 Bft) 0 min 0,0 km/h (0 Bft)
01.07.2010 22:50 27,1 C 26,2 C 0,0 UV-I 0,0 C 52 % 52 % 0 % 1017,2 hPa 0,0 l/m 0,0 km/h (0 Bft) 0 min 0,0 km/h (0 Bft)
01.07.2010 22:52 27,0 C 26,0 C 0,0 UV-I 0,0 C 52 % 52 % 0 % 1017,2 hPa 0,0 l/m 0,4 km/h (0 Bft) 0 min 0,0 km/h (0 Bft)
01.07.2010 22:54 27,0 C 25,9 C 0,0 UV-I 0,0 C 52 % 52 % 0 % 1017,2 hPa 0,0 l/m 0,4 km/h (0 Bft) 0 min 7,4 km/h (2 Bft)
01.07.2010 22:56 27,0 C 25,9 C 0,0 UV-I 0,0 C 52 % 52 % 0 % 1017,2 hPa 0,0 l/m 0,8 km/h (0 Bft) 0 min 3,2 km/h (1 Bft)
01.07.2010 22:58 27,0 C 25,9 C 0,0 UV-I 0,0 C 52 % 52 % 0 % 1017,2 hPa 0,0 l/m 1,2 km/h (1 Bft) 0 min 0,0 km/h (0 Bft)
01.07.2010 23:00 27,0 C 25,9 C 0,0 UV-I 0,0 C 52 % 53 % 0 % 1017,2 hPa 0,0 l/m 1,6 km/h (1 Bft) 0 min 0,0 km/h (0 Bft)
01.07.2010 23:02 27,0 C 25,9 C 0,0 UV-I 0,0 C 52 % 53 % 0 % 1017,2 hPa 0,0 l/m 2,0 km/h (1 Bft) 0 min 0,0 km/h (0 Bft)
01.07.2010 23:04 26,9 C 25,8 C 0,0 UV-I 0,0 C 52 % 53 % 0 % 1017,2 hPa 0,0 l/m 2,4 km/h (1 Bft) 0 min 5,1 km/h (1 Bft)
01.07.2010 23:06 26,9 C 25,7 C 0,0 UV-I 0,0 C 52 % 53 % 0 % 1017,2 hPa 0,0 l/m 2,8 km/h (1 Bft) 0 min 3,9 km/h (1 Bft)
01.07.2010 23:08 26,9 C 25,6 C 0,0 UV-I 0,0 C 52 % 53 % 0 % 1017,2 hPa 0,0 l/m 2,8 km/h (1 Bft) 0 min 4,8 km/h (1 Bft)
01.07.2010 23:10 26,9 C 25,6 C 0,0 UV-I 0,0 C 52 % 53 % 0 % 1017,1 hPa 0,0 l/m 2,8 km/h (1 Bft) 0 min 4,8 km/h (1 Bft)
01.07.2010 23:12 26,9 C 25,6 C 0,0 UV-I 0,0 C 52 % 53 % 0 % 1017,1 hPa 0,0 l/m 2,8 km/h (1 Bft) 0 min 3,2 km/h (1 Bft)
01.07.2010 23:14 26,9 C 25,5 C 0,0 UV-I 0,0 C 52 % 54 % 0 % 1017,1 hPa 0,0 l/m 2,8 km/h (1 Bft) 0 min 4,2 km/h (1 Bft)
01.07.2010 23:18 26,8 C 25,5 C 0,0 UV-I 0,0 C 52 % 54 % 0 % 1017,1 hPa 0,0 l/m 2,0 km/h (1 Bft) 0 min 4,2 km/h (1 Bft)
01.07.2010 23:20 26,8 C 25,4 C 0,0 UV-I 0,0 C 52 % 54 % 0 % 1017,1 hPa 0,0 l/m 2,0 km/h (1 Bft) 0 min 4,8 km/h (1 Bft)
01.07.2010 23:22 26,8 C 25,3 C 0,0 UV-I 0,0 C 52 % 54 % 0 % 1017,1 hPa 0,0 l/m 1,6 km/h (1 Bft) 0 min 0,0 km/h (0 Bft)
01.07.2010 23:24 26,8 C 25,2 C 0,0 UV-I 0,0 C 52 % 54 % 0 % 1017,1 hPa 0,0 l/m 2,0 km/h (1 Bft) 0 min 4,5 km/h (1 Bft)
01.07.2010 23:26 26,8 C 25,2 C 0,0 UV-I 0,0 C 52 % 54 % 0 % 1017,1 hPa 0,0 l/m 1,6 km/h (1 Bft) 0 min 0,0 km/h (0 Bft)
01.07.2010 23:28 26,8 C 25,2 C 0,0 UV-I 0,0 C 52 % 54 % 0 % 1017,1 hPa 0,0 l/m 1,6 km/h (1 Bft) 0 min 6,4 km/h (2 Bft)
01.07.2010 23:32 26,8 C 25,1 C 0,0 UV-I 0,0 C 52 % 55 % 0 % 1017,1 hPa 0,0 l/m 2,0 km/h (1 Bft) 0 min 6,4 km/h (2 Bft)
01.07.2010 23:34 26,8 C 25,0 C 0,0 UV-I 0,0 C 52 % 55 % 0 % 1017,1 hPa 0,0 l/m 2,4 km/h (1 Bft) 0 min 3,9 km/h (1 Bft)
01.07.2010 23:36 26,8 C 25,0 C 0,0 UV-I 0,0 C 52 % 55 % 0 % 1017,1 hPa 0,0 l/m 2,4 km/h (1 Bft) 0 min 3,5 km/h (1 Bft)
01.07.2010 23:38 26,8 C 24,9 C 0,0 UV-I 0,0 C 52 % 55 % 0 % 1017,1 hPa 0,0 l/m 2,4 km/h (1 Bft) 0 min 0,0 km/h (0 Bft)
01.07.2010 23:40 26,7 C 24,9 C 0,0 UV-I 0,0 C 52 % 55 % 0 % 1017,1 hPa 0,0 l/m 2,0 km/h (1 Bft) 0 min 4,8 km/h (1 Bft)
01.07.2010 23:42 26,7 C 24,9 C 0,0 UV-I 0,0 C 52 % 55 % 0 % 1017,1 hPa 0,0 l/m 1,6 km/h (1 Bft) 0 min 0,0 km/h (0 Bft)
01.07.2010 23:44 26,7 C 24,8 C 0,0 UV-I 0,0 C 52 % 56 % 0 % 1017,1 hPa 0,0 l/m 1,6 km/h (1 Bft) 0 min 0,0 km/h (0 Bft)
01.07.2010 23:46 26,7 C 24,9 C 0,0 UV-I 0,0 C 52 % 56 % 0 % 1017,1 hPa 0,0 l/m 1,2 km/h (1 Bft) 0 min 0,0 km/h (0 Bft)
01.07.2010 23:48 26,7 C 24,8 C 0,0 UV-I 0,0 C 52 % 56 % 0 % 1017,1 hPa 0,0 l/m 0,8 km/h (0 Bft) 0 min 0,0 km/h (0 Bft)
01.07.2010 23:50 26,7 C 24,7 C 0,0 UV-I 0,0 C 52 % 56 % 0 % 1016,9 hPa 0,0 l/m 0,8 km/h (0 Bft) 0 min 0,0 km/h (0 Bft)
01.07.2010 23:52 26,7 C 24,5 C 0,0 UV-I 0,0 C 52 % 56 % 0 % 1016,9 hPa 0,0 l/m 0,8 km/h (0 Bft) 0 min 3,5 km/h (1 Bft)
01.07.2010 23:54 26,7 C 24,5 C 0,0 UV-I 0,0 C 52 % 56 % 0 % 1016,9 hPa 0,0 l/m 0,8 km/h (0 Bft) 0 min 0,0 km/h (0 Bft)
01.07.2010 23:56 26,6 C 24,5 C 0,0 UV-I 0,0 C 52 % 56 % 0 % 1016,9 hPa 0,0 l/m 0,8 km/h (0 Bft) 0 min 3,2 km/h (1 Bft)
01.07.2010 23:58 26,7 C 24,4 C 0,0 UV-I 0,0 C 52 % 57 % 0 % 1016,9 hPa 0,0 l/m 0,8 km/h (0 Bft) 0 min 0,0 km/h (0 Bft)
_ Min-Zeit 05:52 05:24 00:02 00:00 16:12 15:54 00:00 21:30 - 00:00 - 00:00
Minimum _ 24,6 C 17,6 C 0,0 UV-I 0,0 C 46 % 34 % 0 % 1016,8 hPa - 0,0 km/h (0 Bft) - 0,0 km/h (0 Bft)
_ Max-Zeit 16:34 16:12 10:12 12:18 05:30 04:34 08:18 00:00 00:00 15:26 08:18 13:40
Maximum _ 28,9 C 32,4 C 13,4 UV-I 6,3 C 59 % 87 % 100 % 1021,6 hPa 0,0 l/m 6,8 km/h
SO (2 Bft)
2 min 22,2 km/h
S-SW (4 Bft)
Durchschnitt _ 26,3 C 25,3 C 4,2 UV-I 1,8 C 53 % 59 % 41 % 1019,2 hPa #0,0 l/m 2,2 km/h (1 Bft) #7:42 h 3,0 km/h (1 Bft)
© 2012 W. Hausmann